GFSMA_prec_precacc24_114.txt.gz
Total_Precipitation_Accumulation
0.39 0.75 0.48 0.45 0.49 1.10 0.66 0.37 0.41 0.31 0.34 0.35 0.35 0.30 0.13 0.20 0.11 0.12 0.16 0.14 0.17 0.10 0.03 0.04 0.05 0.04 0.04 0.04 0.05 0.04 0.02 0.01 0.01 0.00 0.01 0.01 0.00 0.00 0.00 0.00 0.00 0.00 0.00
0.36 0.78 0.66 0.57 0.47 0.76 0.64 0.52 0.33 0.39 0.37 0.48 0.32 0.25 0.20 0.23 0.08 0.08 0.14 0.14 0.14 0.11 0.05 0.05 0.06 0.04 0.04 0.04 0.04 0.02 0.01 0.01 0.01 0.00 0.01 0.01 0.01 0.00 0.00 0.00 0.00 0.00 0.00
0.15 0.41 0.52 0.42 0.50 0.62 0.54 0.69 0.62 0.46 0.47 0.73 0.43 0.29 0.18 0.24 0.12 0.04 0.08 0.11 0.09 0.05 0.04 0.05 0.06 0.04 0.04 0.04 0.03 0.02 0.01 0.01 0.01 0.01 0.01 0.00 0.00 0.00 0.00 0.00 0.00 0.00 0.00
0.06 0.13 0.25 0.47 0.45 0.60 0.43 0.46 0.69 0.50 0.45 0.65 0.64 0.36 0.28 0.23 0.28 0.07 0.04 0.04 0.03 0.02 0.03 0.04 0.05 0.03 0.04 0.03 0.02 0.01 0.01 0.01 0.01 0.01 0.01 0.00 0.00 0.00 0.00 0.00 0.00 0.00 0.00
0.06 0.09 0.09 0.23 0.51 0.41 0.36 0.48 0.57 0.60 0.41 0.51 0.67 0.51 0.36 0.28 0.32 0.27 0.04 0.01 0.01 0.01 0.01 0.03 0.03 0.02 0.02 0.02 0.01 0.01 0.01 0.01 0.01 0.01 0.00 0.00 0.00 0.00 0.00 0.00 0.00 0.00 0.00
0.09 0.12 0.13 0.14 0.27 0.47 0.43 0.59 0.70 0.65 0.54 0.44 0.59 0.66 0.36 0.38 0.31 0.36 0.16 0.01 0.00 0.00 0.01 0.02 0.02 0.02 0.02 0.02 0.01 0.01 0.01 0.01 0.01 0.01 0.00 0.00 0.00 0.00 0.00 0.00 0.00 0.00 0.00
0.19 0.21 0.16 0.23 0.27 0.15 0.37 0.47 0.82 0.87 0.74 0.53 0.78 0.89 0.70 0.36 0.35 0.30 0.16 0.03 0.00 0.00 0.00 0.02 0.01 0.00 0.01 0.01 0.01 0.01 0.01 0.02 0.01 0.01 0.01 0.00 0.01 0.01 0.00 0.00 0.00 0.00 0.00
0.40 0.34 0.28 0.22 0.39 0.24 0.15 0.29 0.62 1.04 0.91 0.60 0.66 0.75 0.58 0.39 0.29 0.35 0.17 0.02 0.00 0.00 0.00 0.01 0.01 0.00 0.00 0.00 0.00 0.01 0.00 0.02 0.02 0.00 0.01 0.01 0.00 0.00 0.00 0.00 0.00 0.00 0.00
0.29 0.50 0.36 0.25 0.47 0.34 0.14 0.10 0.22 0.67 0.67 0.64 0.38 0.45 0.20 0.20 0.14 0.25 0.21 0.02 0.01 0.00 0.00 0.00 0.00 0.00 0.00 0.00 0.00 0.00 0.00 0.00 0.02 0.02 0.01 0.00 0.00 0.00 0.00 0.00 0.00 0.00 0.00
0.05 0.30 0.48 0.31 0.31 0.52 0.36 0.10 0.05 0.26 0.50 0.48 0.50 0.45 0.10 0.04 0.05 0.14 0.15 0.03 0.01 0.01 0.00 0.00 0.00 0.00 0.00 0.00 0.00 0.00 0.00 0.00 0.00 0.01 0.02 0.03 0.01 0.00 0.00 0.00 0.00 0.00 0.00
0.04 0.10 0.29 0.41 0.41 0.39 0.42 0.30 0.14 0.08 0.24 0.31 0.37 0.35 0.31 0.14 0.10 0.07 0.10 0.06 0.03 0.01 0.00 0.00 0.00 0.00 0.00 0.00 0.00 0.00 0.00 0.00 0.00 0.00 0.00 0.01 0.05 0.06 0.02 0.00 0.00 0.00 0.00
0.03 0.07 0.20 0.28 0.40 0.44 0.52 0.47 0.23 0.15 0.08 0.15 0.30 0.25 0.26 0.21 0.13 0.09 0.10 0.12 0.08 0.04 0.01 0.00 0.00 0.00 0.00 0.00 0.00 0.01 0.01 0.01 0.01 0.00 0.00 0.00 0.00 0.02 0.06 0.08 0.07 0.06 0.04
0.03 0.05 0.10 0.11 0.12 0.23 0.45 0.55 0.63 0.39 0.16 0.08 0.10 0.15 0.22 0.20 0.18 0.19 0.17 0.16 0.10 0.09 0.05 0.01 0.00 0.00 0.00 0.00 0.00 0.01 0.01 0.01 0.00 0.01 0.01 0.00 0.00 0.00 0.00 0.01 0.04 0.08 0.11
0.02 0.01 0.04 0.08 0.05 0.06 0.14 0.24 0.33 0.43 0.44 0.29 0.17 0.13 0.14 0.19 0.20 0.18 0.15 0.14 0.10 0.10 0.08 0.04 0.01 0.00 0.00 0.00 0.00 0.00 0.00 0.01 0.01 0.01 0.01 0.00 0.00 0.00 0.00 0.00 0.00 0.01 0.01
0.00 0.00 0.02 0.06 0.05 0.02 0.04 0.06 0.08 0.14 0.29 0.39 0.32 0.20 0.15 0.13 0.16 0.15 0.10 0.09 0.07 0.07 0.04 0.02 0.03 0.01 0.00 0.00 0.00 0.00 0.00 0.00 0.00 0.00 0.00 0.00 0.00 0.00 0.00 0.00 0.00 0.01 0.01
0.00 0.01 0.01 0.03 0.05 0.03 0.03 0.04 0.04 0.05 0.09 0.20 0.34 0.40 0.28 0.23 0.25 0.20 0.16 0.11 0.06 0.04 0.03 0.00 0.01 0.02 0.05 0.06 0.04 0.02 0.00 0.00 0.00 0.00 0.00 0.00 0.00 0.02 0.04 0.05 0.04 0.04 0.03
0.02 0.02 0.00 0.01 0.02 0.02 0.01 0.02 0.02 0.03 0.05 0.05 0.09 0.21 0.27 0.29 0.29 0.31 0.27 0.21 0.15 0.09 0.06 0.01 0.01 0.01 0.03 0.08 0.04 0.04 0.05 0.07 0.03 0.01 0.01 0.00 0.00 0.01 0.04 0.04 0.04 0.04 0.03
0.06 0.02 0.01 0.01 0.01 0.02 0.01 0.01 0.01 0.01 0.02 0.02 0.02 0.01 0.05 0.13 0.18 0.23 0.31 0.33 0.29 0.25 0.21 0.08 0.06 0.06 0.06 0.06 0.05 0.06 0.04 0.04 0.02 0.01 0.03 0.03 0.02 0.02 0.02 0.03 0.03 0.02 0.02
0.08 0.03 0.03 0.02 0.01 0.02 0.02 0.02 0.02 0.02 0.01 0.01 0.01 0.01 0.01 0.02 0.04 0.08 0.13 0.18 0.17 0.18 0.21 0.23 0.17 0.14 0.15 0.12 0.11 0.09 0.07 0.05 0.03 0.02 0.02 0.04 0.04 0.03 0.03 0.03 0.03 0.02 0.02
0.09 0.04 0.01 0.02 0.01 0.02 0.02 0.03 0.04 0.03 0.01 0.01 0.02 0.01 0.02 0.02 0.02 0.03 0.06 0.09 0.12 0.12 0.13 0.14 0.14 0.10 0.09 0.08 0.12 0.08 0.06 0.03 0.04 0.02 0.03 0.05 0.04 0.03 0.03 0.04 0.04 0.04 0.03
0.10 0.06 0.04 0.02 0.02 0.02 0.03 0.04 0.03 0.02 0.02 0.02 0.02 0.02 0.01 0.02 0.01 0.01 0.02 0.03 0.06 0.07 0.06 0.06 0.06 0.04 0.02 0.02 0.03 0.02 0.03 0.02 0.03 0.05 0.08 0.09 0.09 0.06 0.09 0.16 0.17 0.21 0.25
0.06 0.05 0.04 0.03 0.02 0.02 0.04 0.03 0.03 0.03 0.02 0.02 0.02 0.01 0.01 0.02 0.01 0.01 0.01 0.01 0.02 0.04 0.03 0.02 0.01 0.01 0.00 0.01 0.01 0.03 0.04 0.06 0.05 0.04 0.08 0.08 0.07 0.12 0.16 0.21 0.43 0.38 0.26
0.11 0.07 0.06 0.03 0.01 0.01 0.03 0.02 0.02 0.03 0.05 0.05 0.03 0.03 0.03 0.03 0.02 0.00 0.00 0.01 0.03 0.04 0.05 0.06 0.07 0.05 0.05 0.04 0.04 0.04 0.04 0.08 0.16 0.23 0.28 0.34 0.36 0.38 0.38 0.41 0.61 0.44 0.46
0.16 0.10 0.11 0.14 0.13 0.13 0.11 0.05 0.06 0.04 0.05 0.06 0.09 0.06 0.07 0.08 0.14 0.12 0.03 0.05 0.12 0.15 0.17 0.21 0.26 0.27 0.25 0.20 0.19 0.30 0.38 0.43 0.51 0.51 0.50 0.59 0.56 0.64 0.67 0.66 0.95 0.61 0.41
0.43 0.29 0.24 0.27 0.24 0.22 0.34 0.17 0.10 0.05 0.11 0.14 0.14 0.15 0.15 0.10 0.28 0.26 0.16 0.20 0.40 0.62 0.76 0.75 0.88 0.83 0.75 0.65 0.61 0.64 0.87 1.12 1.16 1.04 0.89 0.78 0.72 0.67 0.62 0.56 0.61 0.77 0.49
0.75 0.63 0.49 0.44 0.48 0.23 0.43 0.32 0.25 0.15 0.18 0.16 0.16 0.20 0.46 0.29 0.27 0.20 0.17 0.18 0.30 0.40 0.46 0.48 0.55 0.58 0.52 0.48 0.53 0.41 0.45 0.66 0.93 1.06 0.93 0.70 0.66 0.67 0.68 0.64 0.56 0.56 0.51

GFSMA_prec_precacc24_117.txt.gz
Total_Precipitation_Accumulation
0.25 0.35 0.28 0.30 0.43 1.09 0.66 0.37 0.41 0.31 0.34 0.35 0.35 0.30 0.13 0.20 0.11 0.12 0.22 0.27 0.30 0.23 0.08 0.04 0.05 0.04 0.04 0.05 0.05 0.05 0.03 0.01 0.01 0.01 0.01 0.01 0.01 0.01 0.01 0.00 0.00 0.00 0.00
0.21 0.60 0.54 0.51 0.44 0.75 0.64 0.52 0.33 0.39 0.37 0.48 0.32 0.25 0.20 0.23 0.08 0.08 0.16 0.24 0.25 0.28 0.18 0.07 0.06 0.04 0.04 0.04 0.04 0.03 0.02 0.01 0.01 0.01 0.01 0.01 0.01 0.01 0.00 0.00 0.00 0.00 0.00
0.12 0.37 0.47 0.39 0.49 0.62 0.54 0.69 0.62 0.46 0.47 0.73 0.43 0.29 0.18 0.24 0.12 0.04 0.08 0.15 0.18 0.22 0.25 0.16 0.07 0.04 0.04 0.04 0.03 0.02 0.02 0.01 0.01 0.01 0.01 0.01 0.01 0.01 0.00 0.00 0.00 0.00 0.00
0.05 0.13 0.24 0.46 0.45 0.60 0.43 0.46 0.69 0.50 0.45 0.65 0.64 0.36 0.28 0.23 0.28 0.07 0.04 0.09 0.13 0.12 0.14 0.11 0.07 0.03 0.04 0.04 0.02 0.02 0.01 0.01 0.02 0.02 0.01 0.01 0.01 0.01 0.00 0.00 0.00 0.00 0.00
0.05 0.08 0.08 0.22 0.51 0.41 0.36 0.48 0.57 0.60 0.41 0.51 0.67 0.52 0.37 0.28 0.32 0.27 0.06 0.06 0.09 0.11 0.05 0.05 0.04 0.03 0.03 0.03 0.02 0.01 0.01 0.01 0.01 0.02 0.01 0.00 0.01 0.01 0.01 0.00 0.00 0.00 0.00
0.04 0.09 0.08 0.06 0.26 0.47 0.43 0.59 0.70 0.65 0.54 0.44 0.60 0.67 0.38 0.38 0.31 0.37 0.22 0.15 0.14 0.06 0.02 0.03 0.03 0.02 0.02 0.03 0.02 0.01 0.02 0.01 0.01 0.02 0.01 0.01 0.01 0.01 0.01 0.00 0.00 0.00 0.00
0.10 0.09 0.10 0.12 0.15 0.15 0.38 0.47 0.83 0.88 0.75 0.54 0.82 0.93 0.71 0.37 0.36 0.31 0.27 0.26 0.29 0.05 0.01 0.02 0.01 0.00 0.01 0.03 0.02 0.01 0.02 0.03 0.01 0.01 0.01 0.01 0.01 0.02 0.01 0.00 0.00 0.00 0.00
0.22 0.21 0.16 0.10 0.19 0.21 0.15 0.30 0.63 1.06 0.94 0.62 0.69 0.78 0.63 0.41 0.30 0.37 0.24 0.15 0.16 0.07 0.01 0.01 0.01 0.00 0.00 0.02 0.02 0.02 0.01 0.03 0.02 0.01 0.02 0.01 0.01 0.01 0.01 0.00 0.00 0.00 0.00
0.24 0.37 0.25 0.15 0.38 0.26 0.13 0.10 0.23 0.68 0.69 0.65 0.40 0.47 0.22 0.22 0.15 0.26 0.28 0.14 0.12 0.08 0.01 0.00 0.00 0.01 0.01 0.01 0.00 0.00 0.00 0.01 0.02 0.03 0.01 0.01 0.00 0.00 0.00 0.00 0.00 0.00 0.00
0.03 0.24 0.40 0.21 0.22 0.48 0.33 0.09 0.05 0.27 0.51 0.49 0.52 0.47 0.10 0.05 0.05 0.15 0.20 0.16 0.11 0.05 0.01 0.00 0.00 0.00 0.01 0.00 0.00 0.00 0.00 0.00 0.00 0.01 0.03 0.02 0.01 0.00 0.00 0.00 0.00 0.00 0.00
0.01 0.06 0.20 0.22 0.19 0.29 0.33 0.25 0.13 0.09 0.25 0.32 0.37 0.36 0.33 0.15 0.13 0.12 0.18 0.18 0.14 0.06 0.02 0.00 0.00 0.00 0.00 0.00 0.00 0.00 0.00 0.00 0.00 0.00 0.00 0.02 0.04 0.04 0.01 0.00 0.00 0.00 0.00
0.03 0.04 0.08 0.13 0.16 0.22 0.31 0.35 0.20 0.14 0.08 0.16 0.31 0.25 0.26 0.22 0.19 0.21 0.21 0.17 0.15 0.09 0.05 0.02 0.00 0.00 0.00 0.00 0.00 0.01 0.01 0.01 0.01 0.00 0.00 0.00 0.00 0.01 0.04 0.06 0.05 0.04 0.02
0.03 0.03 0.08 0.09 0.07 0.16 0.35 0.48 0.58 0.37 0.16 0.09 0.11 0.16 0.22 0.20 0.20 0.26 0.31 0.29 0.20 0.21 0.18 0.07 0.02 0.00 0.00 0.00 0.00 0.01 0.01 0.01 0.00 0.01 0.01 0.00 0.00 0.00 0.00 0.00 0.02 0.06 0.08
0.03 0.01 0.05 0.09 0.04 0.05 0.12 0.22 0.32 0.43 0.44 0.29 0.17 0.13 0.15 0.19 0.22 0.19 0.22 0.29 0.27 0.26 0.23 0.12 0.04 0.01 0.00 0.00 0.00 0.00 0.00 0.01 0.01 0.01 0.01 0.00 0.00 0.00 0.00 0.00 0.00 0.00 0.01
0.02 0.01 0.02 0.06 0.07 0.03 0.02 0.04 0.08 0.15 0.29 0.39 0.32 0.20 0.15 0.14 0.21 0.24 0.19 0.19 0.20 0.22 0.13 0.07 0.08 0.01 0.00 0.00 0.00 0.00 0.00 0.00 0.00 0.00 0.00 0.00 0.00 0.00 0.00 0.00 0.00 0.00 0.00
0.05 0.03 0.01 0.03 0.06 0.03 0.02 0.03 0.03 0.05 0.10 0.21 0.34 0.40 0.27 0.23 0.26 0.28 0.25 0.18 0.12 0.09 0.07 0.02 0.02 0.02 0.05 0.06 0.04 0.02 0.01 0.02 0.01 0.00 0.00 0.00 0.00 0.00 0.00 0.00 0.00 0.00 0.01
0.10 0.08 0.03 0.02 0.02 0.02 0.01 0.03 0.03 0.03 0.06 0.06 0.10 0.22 0.27 0.28 0.29 0.36 0.37 0.26 0.16 0.10 0.06 0.01 0.01 0.01 0.03 0.08 0.04 0.04 0.05 0.08 0.04 0.02 0.01 0.00 0.00 0.00 0.00 0.00 0.00 0.00 0.01
0.15 0.09 0.06 0.03 0.01 0.02 0.02 0.01 0.02 0.02 0.02 0.03 0.02 0.01 0.05 0.14 0.19 0.24 0.34 0.39 0.32 0.28 0.22 0.08 0.06 0.06 0.06 0.07 0.07 0.08 0.06 0.04 0.03 0.04 0.05 0.04 0.03 0.04 0.02 0.02 0.02 0.01 0.01
0.22 0.15 0.10 0.07 0.04 0.02 0.02 0.02 0.02 0.03 0.01 0.02 0.02 0.02 0.01 0.03 0.09 0.15 0.21 0.27 0.26 0.26 0.27 0.28 0.21 0.18 0.17 0.14 0.15 0.13 0.11 0.07 0.04 0.04 0.06 0.06 0.05 0.03 0.03 0.03 0.03 0.01 0.01
0.24 0.17 0.13 0.10 0.11 0.04 0.03 0.03 0.05 0.05 0.02 0.02 0.02 0.02 0.03 0.04 0.06 0.07 0.12 0.18 0.26 0.37 0.37 0.31 0.27 0.21 0.19 0.20 0.27 0.22 0.16 0.10 0.10 0.07 0.04 0.05 0.04 0.03 0.03 0.04 0.02 0.02 0.02
0.24 0.18 0.12 0.07 0.05 0.03 0.04 0.05 0.04 0.03 0.03 0.03 0.02 0.02 0.02 0.06 0.11 0.08 0.08 0.08 0.14 0.16 0.19 0.18 0.20 0.17 0.12 0.11 0.13 0.10 0.12 0.11 0.16 0.12 0.10 0.10 0.08 0.05 0.07 0.12 0.12 0.15 0.17
0.22 0.22 0.17 0.12 0.05 0.04 0.06 0.04 0.04 0.04 0.04 0.03 0.03 0.02 0.02 0.03 0.03 0.06 0.04 0.04 0.06 0.07 0.07 0.07 0.05 0.03 0.02 0.01 0.03 0.06 0.07 0.11 0.13 0.10 0.10 0.09 0.07 0.11 0.12 0.15 0.31 0.25 0.17
0.32 0.28 0.20 0.12 0.03 0.02 0.03 0.03 0.03 0.03 0.07 0.06 0.05 0.05 0.05 0.04 0.04 0.01 0.05 0.05 0.05 0.05 0.06 0.07 0.07 0.05 0.05 0.04 0.04 0.04 0.04 0.07 0.13 0.17 0.22 0.29 0.32 0.34 0.33 0.36 0.51 0.33 0.34
0.38 0.36 0.32 0.18 0.12 0.11 0.11 0.06 0.08 0.04 0.05 0.07 0.11 0.08 0.09 0.10 0.16 0.13 0.04 0.06 0.12 0.15 0.17 0.21 0.26 0.27 0.24 0.19 0.19 0.26 0.31 0.34 0.40 0.41 0.42 0.53 0.52 0.61 0.62 0.61 0.90 0.52 0.32
0.72 0.58 0.38 0.34 0.22 0.19 0.29 0.16 0.13 0.08 0.12 0.15 0.14 0.16 0.16 0.11 0.31 0.28 0.16 0.20 0.40 0.62 0.77 0.75 0.88 0.82 0.72 0.60 0.50 0.52 0.72 0.96 0.99 0.89 0.81 0.77 0.72 0.68 0.62 0.54 0.59 0.76 0.45
1.16 1.07 0.96 0.73 0.61 0.26 0.42 0.33 0.30 0.20 0.22 0.21 0.20 0.22 0.49 0.31 0.30 0.22 0.18 0.19 0.31 0.41 0.47 0.48 0.54 0.56 0.49 0.44 0.47 0.34 0.37 0.55 0.81 0.95 0.90 0.72 0.69 0.70 0.72 0.67 0.55 0.51 0.47

GFSMA_prec_precacc24_123.txt.gz
Total_Precipitation_Accumulation
0.05 0.08 0.09 0.12 0.12 0.24 0.19 0.11 0.29 0.27 0.34 0.35 0.35 0.30 0.13 0.20 0.11 0.12 0.23 0.43 0.53 0.49 0.62 0.53 0.33 0.09 0.03 0.03 0.05 0.05 0.03 0.02 0.01 0.01 0.02 0.02 0.03 0.02 0.02 0.01 0.01 0.01 0.00
0.07 0.09 0.09 0.05 0.15 0.20 0.27 0.23 0.16 0.34 0.37 0.48 0.32 0.25 0.20 0.23 0.08 0.08 0.17 0.31 0.42 0.51 0.59 0.65 0.61 0.24 0.04 0.03 0.04 0.03 0.03 0.02 0.02 0.01 0.02 0.02 0.02 0.02 0.01 0.01 0.01 0.00 0.00
0.06 0.09 0.06 0.05 0.11 0.23 0.19 0.43 0.39 0.36 0.46 0.73 0.43 0.29 0.18 0.24 0.12 0.04 0.08 0.15 0.21 0.34 0.49 0.61 0.49 0.30 0.11 0.04 0.04 0.03 0.03 0.02 0.03 0.03 0.03 0.02 0.02 0.02 0.01 0.01 0.01 0.00 0.00
0.05 0.10 0.08 0.06 0.11 0.28 0.19 0.27 0.54 0.42 0.44 0.65 0.64 0.36 0.28 0.24 0.28 0.07 0.04 0.09 0.13 0.16 0.27 0.37 0.45 0.37 0.27 0.07 0.02 0.02 0.02 0.02 0.03 0.03 0.03 0.02 0.02 0.02 0.01 0.01 0.01 0.00 0.00
0.04 0.07 0.06 0.04 0.11 0.16 0.23 0.29 0.43 0.53 0.40 0.51 0.67 0.52 0.37 0.28 0.32 0.27 0.06 0.06 0.10 0.15 0.15 0.22 0.26 0.20 0.13 0.09 0.04 0.02 0.02 0.02 0.02 0.04 0.03 0.01 0.02 0.02 0.02 0.01 0.00 0.00 0.00
0.03 0.08 0.07 0.03 0.09 0.23 0.29 0.41 0.54 0.57 0.51 0.44 0.60 0.68 0.39 0.39 0.31 0.37 0.22 0.15 0.15 0.16 0.21 0.18 0.19 0.19 0.11 0.06 0.06 0.04 0.03 0.02 0.02 0.04 0.03 0.02 0.02 0.03 0.02 0.01 0.00 0.00 0.00
0.03 0.06 0.08 0.02 0.01 0.08 0.29 0.38 0.73 0.82 0.74 0.54 0.84 0.95 0.73 0.38 0.36 0.31 0.27 0.26 0.33 0.31 0.36 0.29 0.26 0.22 0.22 0.08 0.06 0.06 0.04 0.04 0.01 0.03 0.04 0.02 0.03 0.03 0.03 0.01 0.00 0.00 0.00
0.05 0.08 0.05 0.02 0.01 0.01 0.10 0.29 0.62 1.07 0.96 0.64 0.72 0.80 0.65 0.42 0.30 0.37 0.25 0.16 0.20 0.31 0.37 0.49 0.28 0.21 0.20 0.09 0.05 0.06 0.07 0.06 0.03 0.01 0.05 0.04 0.02 0.02 0.02 0.01 0.01 0.00 0.00
0.07 0.10 0.12 0.03 0.08 0.03 0.02 0.07 0.23 0.69 0.70 0.67 0.42 0.49 0.23 0.22 0.15 0.26 0.28 0.15 0.13 0.16 0.17 0.27 0.35 0.20 0.13 0.08 0.03 0.02 0.03 0.04 0.05 0.04 0.03 0.03 0.02 0.01 0.01 0.02 0.01 0.01 0.00
0.05 0.11 0.11 0.11 0.08 0.19 0.08 0.02 0.04 0.27 0.52 0.50 0.54 0.48 0.11 0.05 0.06 0.16 0.21 0.17 0.13 0.11 0.11 0.13 0.16 0.18 0.12 0.05 0.02 0.00 0.00 0.01 0.02 0.04 0.04 0.03 0.02 0.01 0.01 0.01 0.01 0.01 0.00
0.17 0.13 0.16 0.14 0.08 0.10 0.11 0.09 0.04 0.09 0.26 0.32 0.37 0.36 0.35 0.17 0.14 0.13 0.19 0.20 0.17 0.09 0.07 0.09 0.16 0.18 0.11 0.03 0.02 0.01 0.00 0.00 0.01 0.01 0.02 0.03 0.03 0.03 0.01 0.01 0.01 0.01 0.00
0.20 0.18 0.23 0.25 0.23 0.16 0.15 0.13 0.06 0.08 0.06 0.16 0.31 0.26 0.27 0.23 0.19 0.22 0.25 0.24 0.22 0.18 0.15 0.13 0.09 0.15 0.20 0.06 0.01 0.00 0.00 0.00 0.00 0.00 0.00 0.01 0.02 0.02 0.04 0.04 0.04 0.03 0.01
0.16 0.09 0.15 0.15 0.08 0.06 0.05 0.18 0.28 0.19 0.08 0.06 0.09 0.15 0.22 0.21 0.21 0.27 0.34 0.37 0.33 0.32 0.27 0.19 0.11 0.07 0.10 0.07 0.01 0.00 0.00 0.00 0.00 0.00 0.01 0.01 0.00 0.00 0.01 0.00 0.01 0.03 0.05
0.13 0.10 0.12 0.13 0.05 0.03 0.05 0.07 0.18 0.33 0.35 0.21 0.11 0.08 0.11 0.19 0.22 0.20 0.24 0.38 0.46 0.44 0.35 0.21 0.15 0.11 0.08 0.04 0.00 0.00 0.01 0.01 0.01 0.01 0.01 0.00 0.00 0.00 0.00 0.00 0.00 0.00 0.01
0.13 0.14 0.09 0.09 0.09 0.07 0.07 0.07 0.08 0.13 0.25 0.33 0.26 0.16 0.12 0.13 0.21 0.24 0.19 0.24 0.35 0.42 0.29 0.17 0.23 0.16 0.12 0.06 0.02 0.00 0.00 0.00 0.00 0.00 0.00 0.00 0.00 0.00 0.00 0.00 0.00 0.00 0.01
0.18 0.13 0.08 0.07 0.08 0.05 0.08 0.05 0.05 0.07 0.11 0.20 0.32 0.38 0.27 0.23 0.26 0.29 0.28 0.22 0.21 0.21 0.22 0.13 0.13 0.15 0.24 0.19 0.10 0.04 0.01 0.02 0.01 0.00 0.00 0.00 0.00 0.00 0.00 0.00 0.00 0.00 0.00
0.23 0.19 0.15 0.11 0.06 0.07 0.07 0.06 0.04 0.04 0.06 0.08 0.12 0.22 0.28 0.29 0.29 0.36 0.39 0.32 0.22 0.15 0.12 0.09 0.12 0.15 0.19 0.19 0.14 0.09 0.07 0.08 0.04 0.02 0.01 0.00 0.01 0.01 0.00 0.00 0.00 0.00 0.00
0.20 0.20 0.21 0.14 0.07 0.07 0.07 0.06 0.04 0.03 0.04 0.04 0.05 0.03 0.06 0.15 0.20 0.24 0.34 0.42 0.39 0.33 0.31 0.19 0.16 0.20 0.13 0.10 0.11 0.11 0.08 0.06 0.04 0.06 0.08 0.08 0.05 0.04 0.02 0.02 0.02 0.01 0.00
0.27 0.24 0.20 0.15 0.11 0.09 0.08 0.07 0.10 0.05 0.04 0.03 0.03 0.01 0.02 0.03 0.08 0.15 0.22 0.28 0.30 0.37 0.39 0.41 0.36 0.31 0.26 0.19 0.18 0.15 0.12 0.10 0.09 0.11 0.11 0.13 0.12 0.06 0.04 0.03 0.03 0.01 0.01
0.31 0.27 0.24 0.22 0.24 0.17 0.12 0.12 0.11 0.08 0.06 0.04 0.03 0.03 0.04 0.04 0.06 0.08 0.14 0.21 0.29 0.45 0.52 0.56 0.57 0.46 0.33 0.28 0.33 0.25 0.20 0.16 0.21 0.15 0.11 0.10 0.08 0.06 0.05 0.05 0.03 0.03 0.02
0.34 0.28 0.22 0.19 0.22 0.23 0.23 0.16 0.10 0.08 0.09 0.07 0.04 0.03 0.03 0.07 0.13 0.11 0.13 0.15 0.22 0.27 0.34 0.40 0.52 0.52 0.39 0.32 0.30 0.21 0.25 0.27 0.47 0.35 0.26 0.25 0.19 0.12 0.12 0.14 0.13 0.15 0.17
0.28 0.37 0.46 0.51 0.44 0.29 0.28 0.16 0.12 0.07 0.06 0.07 0.07 0.04 0.03 0.05 0.04 0.10 0.15 0.15 0.14 0.16 0.20 0.21 0.21 0.23 0.17 0.20 0.28 0.38 0.36 0.51 0.48 0.26 0.23 0.26 0.21 0.24 0.22 0.21 0.35 0.24 0.12
0.34 0.31 0.31 0.39 0.62 0.71 0.72 0.66 0.52 0.36 0.31 0.26 0.13 0.09 0.07 0.05 0.06 0.02 0.08 0.12 0.16 0.16 0.13 0.11 0.13 0.12 0.11 0.10 0.16 0.25 0.29 0.35 0.31 0.27 0.35 0.50 0.51 0.48 0.42 0.44 0.54 0.28 0.22
0.42 0.44 0.47 0.37 0.28 0.33 0.47 0.54 0.63 0.65 0.72 0.61 0.35 0.15 0.11 0.11 0.19 0.16 0.05 0.08 0.15 0.19 0.22 0.25 0.27 0.25 0.21 0.18 0.20 0.28 0.35 0.45 0.49 0.50 0.49 0.59 0.56 0.64 0.64 0.57 0.74 0.39 0.21
0.75 0.74 0.67 0.68 0.56 0.40 0.45 0.42 0.42 0.30 0.33 0.33 0.25 0.20 0.18 0.12 0.33 0.29 0.15 0.21 0.40 0.60 0.74 0.70 0.76 0.73 0.63 0.52 0.44 0.47 0.64 0.77 0.77 0.73 0.66 0.62 0.58 0.53 0.49 0.42 0.44 0.55 0.27
1.17 1.07 0.99 0.90 0.92 0.71 0.89 0.85 0.80 0.64 0.58 0.52 0.37 0.25 0.37 0.25 0.36 0.25 0.14 0.12 0.22 0.29 0.30 0.34 0.38 0.39 0.35 0.32 0.35 0.26 0.31 0.46 0.59 0.69 0.64 0.53 0.52 0.53 0.55 0.50 0.39 0.33 0.27

GFSMA_prec_precacc24_126.txt.gz
Total_Precipitation_Accumulation
0.06 0.08 0.08 0.11 0.10 0.15 0.12 0.06 0.12 0.11 0.24 0.28 0.31 0.29 0.13 0.20 0.11 0.12 0.24 0.49 0.52 0.52 0.74 0.76 0.61 0.57 0.30 0.09 0.07 0.05 0.04 0.02 0.02 0.01 0.02 0.03 0.03 0.03 0.02 0.01 0.01 0.01 0.01
0.06 0.07 0.08 0.05 0.07 0.13 0.15 0.11 0.09 0.18 0.28 0.43 0.30 0.25 0.20 0.23 0.08 0.08 0.17 0.36 0.43 0.50 0.62 0.79 0.87 0.73 0.32 0.07 0.04 0.04 0.03 0.03 0.02 0.02 0.03 0.03 0.03 0.02 0.01 0.01 0.01 0.01 0.01
0.05 0.07 0.05 0.04 0.05 0.14 0.13 0.16 0.13 0.19 0.38 0.69 0.42 0.28 0.18 0.24 0.12 0.04 0.08 0.15 0.23 0.35 0.49 0.66 0.69 0.45 0.18 0.07 0.04 0.02 0.03 0.02 0.03 0.03 0.03 0.03 0.02 0.02 0.01 0.01 0.01 0.01 0.00
0.03 0.08 0.07 0.06 0.07 0.12 0.10 0.13 0.22 0.18 0.34 0.63 0.64 0.37 0.29 0.24 0.28 0.07 0.04 0.09 0.14 0.23 0.31 0.38 0.55 0.50 0.42 0.19 0.06 0.02 0.02 0.02 0.03 0.04 0.04 0.02 0.02 0.02 0.01 0.01 0.01 0.01 0.00
0.02 0.04 0.04 0.04 0.05 0.06 0.04 0.07 0.20 0.27 0.29 0.49 0.67 0.53 0.38 0.28 0.32 0.27 0.06 0.06 0.09 0.15 0.19 0.26 0.27 0.21 0.20 0.17 0.09 0.03 0.02 0.01 0.02 0.04 0.03 0.02 0.02 0.02 0.02 0.01 0.00 0.00 0.00
0.02 0.05 0.05 0.02 0.04 0.04 0.04 0.13 0.16 0.32 0.37 0.42 0.60 0.69 0.39 0.39 0.32 0.38 0.23 0.16 0.16 0.16 0.22 0.23 0.25 0.21 0.15 0.14 0.11 0.06 0.03 0.02 0.02 0.04 0.04 0.02 0.03 0.03 0.03 0.02 0.00 0.00 0.00
0.02 0.05 0.08 0.02 0.01 0.02 0.06 0.23 0.33 0.46 0.55 0.52 0.84 0.95 0.73 0.38 0.36 0.31 0.27 0.26 0.34 0.31 0.36 0.30 0.31 0.29 0.27 0.16 0.14 0.12 0.06 0.04 0.01 0.03 0.05 0.03 0.03 0.03 0.03 0.02 0.01 0.00 0.00
0.01 0.05 0.05 0.00 0.00 0.01 0.04 0.16 0.37 0.72 0.77 0.62 0.72 0.80 0.65 0.42 0.29 0.37 0.24 0.16 0.20 0.31 0.37 0.49 0.28 0.24 0.27 0.31 0.19 0.13 0.11 0.09 0.03 0.01 0.06 0.04 0.02 0.02 0.03 0.02 0.01 0.00 0.00
0.03 0.04 0.04 0.01 0.00 0.01 0.02 0.03 0.16 0.60 0.64 0.65 0.41 0.50 0.23 0.22 0.15 0.26 0.28 0.15 0.13 0.16 0.17 0.27 0.36 0.20 0.16 0.20 0.23 0.13 0.05 0.07 0.06 0.04 0.04 0.04 0.02 0.01 0.01 0.02 0.01 0.01 0.00
0.04 0.04 0.03 0.02 0.00 0.02 0.02 0.02 0.03 0.26 0.52 0.50 0.54 0.48 0.12 0.05 0.06 0.16 0.21 0.16 0.13 0.11 0.11 0.13 0.17 0.19 0.15 0.14 0.14 0.08 0.02 0.02 0.03 0.04 0.04 0.03 0.02 0.01 0.01 0.01 0.02 0.01 0.01
0.18 0.11 0.09 0.07 0.06 0.06 0.08 0.08 0.01 0.07 0.26 0.33 0.38 0.36 0.35 0.18 0.15 0.14 0.20 0.20 0.17 0.09 0.07 0.09 0.16 0.19 0.13 0.09 0.16 0.13 0.03 0.00 0.01 0.02 0.03 0.03 0.03 0.02 0.01 0.01 0.01 0.01 0.01
0.22 0.19 0.23 0.24 0.25 0.24 0.16 0.06 0.03 0.02 0.05 0.17 0.31 0.25 0.27 0.23 0.20 0.22 0.25 0.24 0.22 0.18 0.15 0.13 0.09 0.16 0.25 0.15 0.08 0.11 0.05 0.00 0.00 0.01 0.01 0.02 0.03 0.03 0.03 0.03 0.02 0.02 0.01
0.15 0.09 0.17 0.21 0.11 0.08 0.04 0.07 0.15 0.09 0.03 0.05 0.09 0.14 0.22 0.21 0.21 0.26 0.34 0.37 0.34 0.32 0.28 0.20 0.11 0.08 0.11 0.16 0.13 0.08 0.02 0.00 0.00 0.00 0.00 0.01 0.01 0.01 0.01 0.01 0.01 0.02 0.03
0.16 0.14 0.13 0.22 0.18 0.12 0.05 0.05 0.11 0.16 0.21 0.10 0.07 0.07 0.10 0.18 0.22 0.19 0.24 0.38 0.47 0.44 0.34 0.19 0.15 0.13 0.10 0.12 0.09 0.09 0.05 0.00 0.00 0.00 0.00 0.00 0.00 0.00 0.00 0.00 0.00 0.00 0.01
0.16 0.18 0.12 0.14 0.22 0.16 0.11 0.08 0.09 0.13 0.23 0.30 0.24 0.15 0.10 0.10 0.18 0.23 0.19 0.25 0.36 0.43 0.29 0.17 0.21 0.17 0.14 0.13 0.14 0.09 0.04 0.00 0.00 0.00 0.00 0.00 0.00 0.00 0.00 0.00 0.00 0.01 0.01
0.21 0.16 0.11 0.13 0.14 0.12 0.11 0.08 0.05 0.06 0.08 0.17 0.29 0.32 0.21 0.18 0.22 0.27 0.27 0.22 0.22 0.22 0.23 0.13 0.13 0.15 0.25 0.24 0.21 0.16 0.06 0.04 0.01 0.00 0.00 0.00 0.00 0.00 0.00 0.00 0.00 0.00 0.01
0.25 0.22 0.19 0.16 0.09 0.09 0.08 0.08 0.04 0.04 0.05 0.09 0.13 0.20 0.26 0.27 0.28 0.36 0.38 0.32 0.22 0.16 0.13 0.09 0.11 0.16 0.23 0.28 0.27 0.20 0.15 0.12 0.05 0.02 0.01 0.00 0.01 0.01 0.00 0.00 0.00 0.00 0.00
0.20 0.22 0.26 0.20 0.14 0.12 0.09 0.07 0.05 0.04 0.05 0.08 0.10 0.07 0.08 0.17 0.21 0.24 0.34 0.42 0.39 0.33 0.30 0.19 0.16 0.20 0.15 0.14 0.19 0.23 0.19 0.14 0.08 0.08 0.09 0.08 0.05 0.05 0.03 0.02 0.02 0.01 0.00
0.28 0.24 0.21 0.17 0.15 0.15 0.14 0.12 0.15 0.12 0.10 0.09 0.08 0.06 0.05 0.05 0.09 0.15 0.22 0.28 0.30 0.38 0.39 0.40 0.36 0.30 0.27 0.23 0.23 0.18 0.16 0.15 0.12 0.14 0.13 0.16 0.14 0.07 0.04 0.03 0.03 0.01 0.01
0.32 0.29 0.27 0.25 0.26 0.21 0.16 0.16 0.14 0.12 0.10 0.10 0.09 0.07 0.06 0.05 0.06 0.08 0.13 0.20 0.29 0.45 0.52 0.56 0.57 0.48 0.36 0.31 0.36 0.28 0.24 0.21 0.27 0.19 0.13 0.12 0.10 0.07 0.06 0.05 0.04 0.04 0.04
0.35 0.30 0.25 0.23 0.24 0.24 0.24 0.17 0.10 0.08 0.10 0.10 0.09 0.09 0.06 0.11 0.15 0.11 0.13 0.15 0.21 0.26 0.34 0.39 0.52 0.53 0.43 0.36 0.33 0.24 0.28 0.33 0.54 0.36 0.26 0.25 0.20 0.14 0.13 0.16 0.14 0.15 0.18
0.28 0.38 0.48 0.53 0.46 0.31 0.33 0.17 0.13 0.08 0.07 0.08 0.08 0.07 0.08 0.12 0.09 0.12 0.15 0.15 0.14 0.16 0.20 0.21 0.20 0.23 0.17 0.22 0.34 0.47 0.45 0.61 0.54 0.27 0.25 0.28 0.25 0.29 0.30 0.28 0.44 0.30 0.17
0.34 0.31 0.33 0.44 0.68 0.83 0.89 0.80 0.65 0.47 0.42 0.43 0.40 0.36 0.27 0.22 0.19 0.09 0.10 0.12 0.16 0.16 0.14 0.11 0.11 0.11 0.11 0.10 0.18 0.36 0.45 0.50 0.41 0.31 0.46 0.65 0.63 0.59 0.53 0.54 0.66 0.41 0.36
0.41 0.44 0.47 0.37 0.26 0.32 0.47 0.57 0.74 0.86 0.95 0.83 0.80 0.71 0.72 0.69 0.66 0.53 0.15 0.09 0.15 0.19 0.23 0.25 0.26 0.24 0.18 0.14 0.16 0.24 0.34 0.51 0.59 0.57 0.59 0.71 0.63 0.71 0.72 0.64 0.74 0.42 0.28
0.74 0.72 0.65 0.66 0.53 0.38 0.42 0.41 0.44 0.34 0.40 0.45 0.39 0.35 0.35 0.33 0.54 0.44 0.20 0.17 0.31 0.36 0.47 0.47 0.47 0.50 0.43 0.34 0.28 0.31 0.41 0.49 0.54 0.54 0.52 0.53 0.52 0.48 0.44 0.37 0.39 0.46 0.23
1.16 1.06 0.99 0.89 0.89 0.69 0.86 0.84 0.80 0.69 0.68 0.62 0.48 0.39 0.48 0.39 0.49 0.31 0.17 0.14 0.23 0.23 0.22 0.27 0.30 0.30 0.28 0.26 0.31 0.22 0.23 0.31 0.34 0.35 0.30 0.29 0.30 0.31 0.34 0.31 0.22 0.19 0.14

GFSMA_prec_precacc24_129.txt.gz
Total_Precipitation_Accumulation
0.04 0.07 0.07 0.11 0.08 0.10 0.07 0.04 0.02 0.01 0.02 0.06 0.07 0.14 0.11 0.20 0.11 0.12 0.26 0.49 0.51 0.51 0.75 0.79 0.74 0.76 0.49 0.25 0.14 0.10 0.05 0.03 0.02 0.01 0.02 0.03 0.03 0.03 0.02 0.01 0.01 0.01 0.01
0.04 0.07 0.08 0.05 0.06 0.06 0.08 0.06 0.02 0.01 0.02 0.05 0.11 0.14 0.19 0.23 0.08 0.08 0.18 0.38 0.42 0.50 0.61 0.80 0.92 0.85 0.43 0.16 0.06 0.05 0.04 0.03 0.03 0.02 0.03 0.03 0.03 0.02 0.01 0.01 0.01 0.01 0.01
0.02 0.04 0.02 0.02 0.02 0.05 0.08 0.10 0.08 0.03 0.06 0.24 0.26 0.23 0.18 0.24 0.12 0.05 0.09 0.16 0.24 0.35 0.48 0.65 0.69 0.58 0.31 0.08 0.04 0.03 0.03 0.02 0.03 0.03 0.03 0.03 0.02 0.02 0.01 0.01 0.01 0.01 0.01
0.01 0.03 0.02 0.02 0.03 0.05 0.08 0.07 0.04 0.03 0.09 0.34 0.52 0.34 0.29 0.24 0.28 0.07 0.05 0.09 0.15 0.25 0.32 0.38 0.54 0.50 0.45 0.22 0.06 0.02 0.01 0.02 0.03 0.04 0.04 0.02 0.02 0.02 0.02 0.01 0.01 0.01 0.00
0.01 0.02 0.02 0.02 0.04 0.04 0.02 0.03 0.02 0.01 0.07 0.27 0.57 0.52 0.39 0.29 0.33 0.28 0.07 0.07 0.09 0.16 0.21 0.28 0.26 0.20 0.20 0.19 0.11 0.04 0.03 0.01 0.02 0.04 0.03 0.02 0.02 0.03 0.03 0.01 0.01 0.01 0.00
0.01 0.01 0.01 0.02 0.04 0.03 0.02 0.01 0.01 0.03 0.11 0.23 0.50 0.65 0.39 0.40 0.33 0.39 0.24 0.16 0.16 0.16 0.24 0.31 0.27 0.21 0.14 0.13 0.12 0.06 0.03 0.02 0.02 0.04 0.04 0.02 0.03 0.03 0.03 0.02 0.01 0.00 0.00
0.00 0.01 0.02 0.02 0.01 0.01 0.01 0.02 0.04 0.12 0.25 0.30 0.75 0.91 0.69 0.37 0.37 0.31 0.28 0.27 0.35 0.31 0.37 0.34 0.37 0.34 0.28 0.16 0.14 0.12 0.07 0.05 0.02 0.03 0.05 0.03 0.03 0.03 0.03 0.02 0.01 0.00 0.00
0.00 0.01 0.02 0.00 0.00 0.00 0.01 0.03 0.08 0.22 0.37 0.45 0.68 0.80 0.65 0.42 0.28 0.37 0.24 0.16 0.21 0.31 0.38 0.50 0.31 0.30 0.32 0.32 0.19 0.13 0.12 0.12 0.05 0.02 0.06 0.04 0.02 0.02 0.03 0.02 0.02 0.01 0.00
0.00 0.01 0.02 0.00 0.00 0.01 0.00 0.01 0.04 0.19 0.34 0.52 0.40 0.50 0.23 0.22 0.14 0.25 0.28 0.15 0.13 0.16 0.18 0.27 0.36 0.22 0.21 0.24 0.25 0.17 0.10 0.12 0.12 0.06 0.04 0.04 0.02 0.01 0.01 0.02 0.02 0.01 0.00
0.03 0.02 0.02 0.00 0.00 0.00 0.00 0.00 0.01 0.07 0.29 0.43 0.49 0.45 0.10 0.04 0.05 0.15 0.20 0.16 0.13 0.11 0.11 0.14 0.18 0.21 0.16 0.18 0.17 0.11 0.07 0.05 0.07 0.08 0.06 0.03 0.02 0.01 0.01 0.02 0.02 0.02 0.01
0.17 0.09 0.07 0.05 0.04 0.04 0.04 0.01 0.01 0.04 0.17 0.29 0.35 0.34 0.32 0.16 0.14 0.14 0.19 0.20 0.17 0.09 0.07 0.10 0.17 0.20 0.16 0.11 0.19 0.15 0.06 0.02 0.02 0.03 0.04 0.04 0.02 0.01 0.01 0.01 0.01 0.02 0.01
0.24 0.19 0.20 0.21 0.22 0.23 0.12 0.04 0.01 0.01 0.04 0.16 0.30 0.25 0.26 0.22 0.20 0.23 0.25 0.23 0.22 0.18 0.15 0.14 0.11 0.16 0.28 0.19 0.13 0.14 0.13 0.06 0.03 0.02 0.02 0.02 0.03 0.02 0.01 0.00 0.00 0.01 0.01
0.16 0.10 0.16 0.19 0.11 0.07 0.04 0.03 0.04 0.02 0.02 0.05 0.09 0.15 0.22 0.21 0.20 0.25 0.34 0.35 0.31 0.29 0.26 0.19 0.13 0.10 0.13 0.19 0.16 0.09 0.07 0.07 0.03 0.01 0.00 0.01 0.01 0.01 0.01 0.01 0.00 0.00 0.01
0.17 0.15 0.15 0.20 0.19 0.14 0.06 0.06 0.08 0.07 0.06 0.04 0.04 0.05 0.12 0.20 0.22 0.19 0.24 0.37 0.45 0.42 0.32 0.19 0.16 0.13 0.11 0.12 0.10 0.10 0.12 0.06 0.01 0.01 0.00 0.00 0.00 0.00 0.00 0.00 0.00 0.01 0.01
0.17 0.19 0.14 0.14 0.24 0.24 0.17 0.11 0.09 0.09 0.08 0.09 0.11 0.09 0.09 0.10 0.18 0.23 0.20 0.25 0.36 0.44 0.29 0.16 0.21 0.17 0.15 0.13 0.15 0.09 0.06 0.07 0.06 0.02 0.00 0.00 0.00 0.00 0.00 0.00 0.00 0.01 0.01
0.21 0.16 0.11 0.15 0.16 0.16 0.14 0.10 0.07 0.08 0.08 0.13 0.23 0.28 0.19 0.14 0.17 0.23 0.24 0.21 0.23 0.23 0.24 0.13 0.13 0.15 0.26 0.24 0.21 0.16 0.07 0.09 0.06 0.03 0.01 0.00 0.00 0.00 0.00 0.00 0.00 0.00 0.01
0.25 0.22 0.19 0.17 0.11 0.11 0.11 0.10 0.08 0.08 0.08 0.09 0.12 0.18 0.21 0.19 0.20 0.26 0.31 0.29 0.21 0.16 0.13 0.10 0.12 0.16 0.22 0.25 0.25 0.20 0.19 0.16 0.10 0.10 0.04 0.02 0.02 0.02 0.01 0.00 0.00 0.00 0.00
0.20 0.22 0.26 0.22 0.17 0.14 0.12 0.11 0.08 0.07 0.08 0.10 0.13 0.12 0.11 0.18 0.19 0.23 0.31 0.41 0.40 0.33 0.30 0.19 0.16 0.20 0.16 0.13 0.17 0.19 0.19 0.18 0.14 0.16 0.14 0.11 0.09 0.07 0.03 0.02 0.02 0.01 0.00
0.28 0.25 0.21 0.18 0.17 0.18 0.17 0.16 0.19 0.16 0.14 0.13 0.12 0.12 0.10 0.11 0.15 0.22 0.27 0.30 0.32 0.40 0.39 0.41 0.35 0.29 0.26 0.23 0.21 0.16 0.14 0.16 0.21 0.27 0.27 0.23 0.18 0.11 0.09 0.07 0.05 0.02 0.01
0.33 0.30 0.29 0.27 0.29 0.23 0.18 0.18 0.17 0.15 0.15 0.18 0.17 0.14 0.14 0.12 0.12 0.13 0.16 0.22 0.31 0.47 0.53 0.57 0.58 0.48 0.35 0.31 0.34 0.27 0.24 0.21 0.28 0.26 0.23 0.20 0.18 0.15 0.11 0.10 0.07 0.06 0.05
0.37 0.31 0.27 0.26 0.29 0.29 0.30 0.21 0.13 0.13 0.15 0.17 0.19 0.20 0.18 0.22 0.24 0.17 0.17 0.17 0.23 0.28 0.35 0.40 0.53 0.53 0.43 0.36 0.33 0.25 0.28 0.34 0.56 0.39 0.28 0.30 0.27 0.21 0.18 0.20 0.17 0.17 0.19
0.29 0.39 0.50 0.56 0.47 0.34 0.42 0.25 0.18 0.11 0.09 0.11 0.12 0.11 0.14 0.21 0.15 0.19 0.21 0.19 0.15 0.16 0.21 0.21 0.20 0.23 0.17 0.22 0.33 0.45 0.44 0.63 0.58 0.27 0.22 0.27 0.27 0.31 0.33 0.34 0.46 0.30 0.19
0.33 0.31 0.33 0.45 0.68 0.83 0.90 0.81 0.68 0.48 0.45 0.46 0.43 0.41 0.30 0.28 0.28 0.15 0.24 0.28 0.31 0.31 0.22 0.13 0.10 0.09 0.08 0.08 0.16 0.34 0.46 0.51 0.41 0.32 0.50 0.70 0.66 0.60 0.50 0.51 0.61 0.41 0.39
0.41 0.43 0.47 0.36 0.26 0.32 0.46 0.57 0.76 0.89 1.00 0.90 0.83 0.77 0.79 0.77 0.73 0.63 0.46 0.42 0.38 0.38 0.38 0.32 0.21 0.16 0.15 0.13 0.15 0.20 0.28 0.48 0.62 0.57 0.57 0.68 0.60 0.68 0.70 0.62 0.68 0.40 0.31
0.71 0.71 0.64 0.63 0.50 0.36 0.38 0.40 0.42 0.34 0.39 0.44 0.41 0.39 0.42 0.41 0.61 0.54 0.38 0.41 0.46 0.45 0.50 0.43 0.33 0.34 0.29 0.22 0.19 0.19 0.22 0.28 0.36 0.39 0.40 0.42 0.44 0.43 0.40 0.34 0.36 0.44 0.26
1.05 1.00 0.96 0.87 0.84 0.68 0.83 0.83 0.79 0.68 0.66 0.60 0.48 0.39 0.49 0.44 0.59 0.44 0.31 0.30 0.37 0.38 0.33 0.33 0.31 0.27 0.24 0.25 0.34 0.23 0.17 0.21 0.23 0.23 0.22 0.23 0.25 0.26 0.30 0.28 0.22 0.20 0.15

GFSMA_prec_precacc24_132.txt.gz
Total_Precipitation_Accumulation
0.01 0.02 0.03 0.07 0.05 0.06 0.03 0.01 0.01 0.01 0.01 0.01 0.01 0.00 0.01 0.06 0.09 0.14 0.29 0.50 0.51 0.51 0.75 0.79 0.73 0.76 0.48 0.25 0.14 0.10 0.05 0.04 0.03 0.01 0.02 0.03 0.03 0.03 0.02 0.01 0.02 0.01 0.01
0.00 0.01 0.04 0.03 0.05 0.05 0.05 0.02 0.01 0.02 0.01 0.01 0.02 0.01 0.01 0.07 0.06 0.10 0.20 0.39 0.42 0.50 0.61 0.81 0.92 0.84 0.44 0.16 0.06 0.04 0.03 0.03 0.03 0.02 0.02 0.03 0.03 0.02 0.02 0.01 0.01 0.01 0.01
0.00 0.01 0.00 0.02 0.02 0.02 0.04 0.03 0.03 0.02 0.02 0.03 0.03 0.03 0.04 0.14 0.10 0.05 0.10 0.18 0.24 0.35 0.48 0.65 0.69 0.58 0.35 0.10 0.04 0.03 0.03 0.02 0.03 0.03 0.03 0.03 0.02 0.02 0.01 0.01 0.01 0.01 0.01
0.00 0.01 0.00 0.00 0.01 0.02 0.03 0.03 0.02 0.01 0.02 0.05 0.06 0.08 0.10 0.18 0.26 0.06 0.05 0.11 0.16 0.26 0.32 0.37 0.53 0.50 0.45 0.22 0.06 0.02 0.01 0.02 0.03 0.04 0.04 0.02 0.02 0.02 0.02 0.01 0.01 0.01 0.00
0.00 0.01 0.00 0.00 0.01 0.01 0.01 0.03 0.02 0.01 0.01 0.03 0.08 0.14 0.20 0.25 0.33 0.28 0.07 0.07 0.10 0.18 0.24 0.28 0.26 0.20 0.19 0.19 0.11 0.04 0.02 0.01 0.02 0.04 0.03 0.02 0.02 0.03 0.03 0.01 0.01 0.01 0.00
0.00 0.00 0.00 0.00 0.01 0.02 0.01 0.01 0.01 0.01 0.01 0.02 0.06 0.19 0.27 0.40 0.33 0.40 0.24 0.16 0.16 0.16 0.25 0.34 0.28 0.21 0.14 0.13 0.12 0.06 0.03 0.02 0.02 0.04 0.04 0.02 0.03 0.03 0.03 0.02 0.01 0.01 0.01
0.00 0.00 0.00 0.00 0.00 0.01 0.02 0.02 0.04 0.04 0.05 0.05 0.27 0.40 0.55 0.35 0.37 0.32 0.28 0.27 0.35 0.31 0.37 0.35 0.39 0.34 0.28 0.16 0.14 0.12 0.07 0.05 0.02 0.03 0.05 0.03 0.03 0.03 0.03 0.02 0.01 0.01 0.01
0.00 0.00 0.00 0.00 0.00 0.01 0.01 0.03 0.05 0.06 0.09 0.13 0.32 0.61 0.57 0.40 0.27 0.36 0.24 0.16 0.21 0.31 0.38 0.49 0.31 0.31 0.34 0.33 0.19 0.13 0.13 0.12 0.05 0.02 0.06 0.04 0.02 0.02 0.03 0.02 0.02 0.01 0.00
0.00 0.00 0.00 0.00 0.00 0.01 0.01 0.01 0.02 0.03 0.05 0.14 0.25 0.45 0.22 0.21 0.12 0.23 0.27 0.15 0.13 0.16 0.18 0.27 0.36 0.22 0.23 0.27 0.26 0.17 0.10 0.12 0.13 0.08 0.04 0.03 0.02 0.01 0.01 0.02 0.02 0.02 0.01
0.03 0.01 0.01 0.00 0.00 0.00 0.00 0.01 0.01 0.02 0.04 0.19 0.36 0.39 0.10 0.04 0.04 0.14 0.19 0.16 0.13 0.11 0.12 0.14 0.18 0.21 0.17 0.20 0.20 0.12 0.07 0.05 0.08 0.10 0.08 0.04 0.02 0.01 0.01 0.02 0.02 0.02 0.02
0.17 0.09 0.06 0.05 0.04 0.05 0.04 0.01 0.01 0.02 0.04 0.10 0.22 0.26 0.26 0.14 0.13 0.13 0.19 0.21 0.18 0.09 0.07 0.10 0.17 0.21 0.16 0.12 0.20 0.16 0.06 0.03 0.02 0.04 0.07 0.07 0.03 0.01 0.01 0.01 0.01 0.02 0.02
0.31 0.21 0.23 0.23 0.23 0.23 0.13 0.05 0.03 0.01 0.03 0.08 0.19 0.15 0.19 0.18 0.18 0.22 0.25 0.23 0.23 0.19 0.16 0.14 0.11 0.16 0.28 0.19 0.13 0.14 0.13 0.07 0.04 0.03 0.04 0.05 0.05 0.02 0.01 0.00 0.00 0.01 0.01
0.99 0.68 0.29 0.22 0.14 0.09 0.07 0.04 0.05 0.03 0.04 0.05 0.08 0.14 0.20 0.21 0.20 0.26 0.33 0.33 0.31 0.28 0.26 0.19 0.13 0.11 0.13 0.20 0.18 0.10 0.07 0.07 0.03 0.03 0.04 0.05 0.06 0.05 0.01 0.01 0.01 0.01 0.00
1.24 1.36 0.65 0.27 0.24 0.20 0.14 0.13 0.09 0.07 0.04 0.04 0.04 0.05 0.13 0.20 0.23 0.20 0.25 0.38 0.46 0.40 0.31 0.19 0.15 0.14 0.11 0.13 0.11 0.10 0.12 0.06 0.01 0.01 0.00 0.01 0.02 0.04 0.03 0.01 0.00 0.01 0.01
0.55 0.51 0.30 0.18 0.28 0.27 0.19 0.15 0.15 0.12 0.10 0.06 0.03 0.05 0.07 0.12 0.21 0.27 0.24 0.28 0.42 0.45 0.28 0.17 0.24 0.18 0.15 0.14 0.15 0.09 0.07 0.07 0.06 0.02 0.02 0.01 0.01 0.02 0.01 0.00 0.00 0.01 0.01
0.67 0.38 0.22 0.19 0.20 0.20 0.17 0.12 0.10 0.11 0.13 0.12 0.11 0.15 0.18 0.24 0.31 0.27 0.23 0.19 0.22 0.25 0.27 0.14 0.18 0.18 0.23 0.21 0.19 0.15 0.07 0.09 0.06 0.04 0.02 0.02 0.02 0.02 0.01 0.00 0.00 0.00 0.01
0.35 0.28 0.22 0.18 0.13 0.14 0.13 0.12 0.10 0.10 0.13 0.16 0.15 0.17 0.21 0.30 0.32 0.38 0.36 0.28 0.22 0.22 0.17 0.12 0.14 0.22 0.22 0.23 0.24 0.20 0.17 0.11 0.09 0.10 0.08 0.06 0.04 0.03 0.02 0.01 0.01 0.00 0.00
0.22 0.23 0.27 0.23 0.17 0.15 0.13 0.12 0.10 0.10 0.11 0.15 0.17 0.15 0.12 0.22 0.32 0.40 0.45 0.55 0.56 0.36 0.30 0.20 0.22 0.25 0.17 0.13 0.17 0.19 0.19 0.17 0.13 0.16 0.17 0.18 0.16 0.13 0.09 0.08 0.06 0.02 0.00
0.29 0.25 0.21 0.18 0.17 0.18 0.18 0.17 0.21 0.17 0.18 0.19 0.21 0.22 0.20 0.18 0.23 0.36 0.48 0.54 0.43 0.46 0.47 0.46 0.38 0.32 0.28 0.23 0.21 0.16 0.14 0.16 0.20 0.28 0.30 0.32 0.31 0.24 0.18 0.16 0.14 0.10 0.05
0.33 0.30 0.29 0.27 0.28 0.23 0.18 0.18 0.17 0.16 0.17 0.21 0.24 0.23 0.23 0.21 0.19 0.20 0.20 0.27 0.35 0.49 0.56 0.59 0.59 0.49 0.36 0.31 0.33 0.27 0.24 0.21 0.28 0.27 0.25 0.24 0.26 0.25 0.21 0.16 0.14 0.12 0.10
0.39 0.34 0.31 0.29 0.31 0.30 0.31 0.23 0.15 0.15 0.18 0.20 0.25 0.30 0.31 0.36 0.36 0.25 0.26 0.29 0.40 0.51 0.62 0.63 0.61 0.55 0.44 0.36 0.33 0.25 0.28 0.34 0.57 0.38 0.26 0.28 0.26 0.25 0.21 0.20 0.17 0.17 0.18
0.29 0.39 0.51 0.60 0.53 0.40 0.48 0.30 0.30 0.26 0.23 0.22 0.21 0.20 0.25 0.34 0.23 0.25 0.26 0.25 0.21 0.23 0.28 0.30 0.25 0.25 0.18 0.22 0.33 0.45 0.43 0.63 0.61 0.26 0.21 0.27 0.27 0.30 0.31 0.31 0.44 0.31 0.24
0.33 0.30 0.33 0.44 0.69 0.85 0.91 0.82 0.69 0.50 0.47 0.51 0.54 0.52 0.41 0.38 0.38 0.19 0.29 0.31 0.35 0.39 0.33 0.28 0.26 0.20 0.16 0.14 0.23 0.41 0.47 0.48 0.36 0.25 0.42 0.63 0.62 0.56 0.46 0.47 0.57 0.42 0.40
0.40 0.43 0.47 0.36 0.26 0.31 0.46 0.57 0.76 0.89 1.00 0.89 0.82 0.76 0.78 0.78 0.73 0.64 0.48 0.44 0.39 0.40 0.41 0.39 0.36 0.34 0.30 0.23 0.19 0.19 0.22 0.40 0.53 0.47 0.48 0.59 0.51 0.57 0.57 0.51 0.61 0.38 0.33
0.70 0.70 0.63 0.62 0.50 0.36 0.38 0.40 0.42 0.34 0.39 0.44 0.41 0.39 0.42 0.41 0.57 0.52 0.38 0.41 0.41 0.44 0.54 0.59 0.60 0.67 0.56 0.38 0.24 0.18 0.16 0.20 0.25 0.26 0.29 0.31 0.35 0.38 0.37 0.34 0.35 0.42 0.27
0.90 0.87 0.88 0.83 0.81 0.67 0.80 0.82 0.79 0.68 0.65 0.59 0.47 0.38 0.46 0.42 0.56 0.42 0.30 0.29 0.35 0.38 0.38 0.44 0.47 0.48 0.46 0.46 0.54 0.43 0.33 0.28 0.22 0.21 0.20 0.22 0.25 0.30 0.37 0.33 0.25 0.21 0.17

GFSMA_prec_precacc24_138.txt.gz
Total_Precipitation_Accumulation
0.01 0.01 0.02 0.02 0.01 0.02 0.01 0.01 0.01 0.01 0.00 0.00 0.01 0.00 0.02 0.05 0.04 0.05 0.15 0.38 0.41 0.46 0.75 0.79 0.73 0.76 0.48 0.25 0.14 0.10 0.08 0.07 0.06 0.04 0.02 0.02 0.03 0.03 0.03 0.02 0.02 0.02 0.02
0.00 0.01 0.01 0.01 0.01 0.02 0.02 0.02 0.01 0.02 0.01 0.01 0.01 0.00 0.01 0.01 0.00 0.02 0.06 0.26 0.32 0.42 0.63 0.85 0.94 0.87 0.44 0.15 0.04 0.03 0.04 0.04 0.03 0.03 0.02 0.02 0.02 0.02 0.02 0.02 0.02 0.02 0.02
0.00 0.01 0.00 0.01 0.01 0.01 0.02 0.02 0.03 0.02 0.02 0.02 0.02 0.01 0.00 0.01 0.00 0.00 0.02 0.08 0.18 0.32 0.48 0.65 0.71 0.61 0.37 0.10 0.02 0.02 0.03 0.04 0.03 0.03 0.04 0.03 0.02 0.02 0.01 0.02 0.01 0.01 0.02
0.02 0.01 0.01 0.00 0.01 0.02 0.01 0.01 0.01 0.01 0.01 0.03 0.03 0.03 0.02 0.00 0.00 0.00 0.01 0.07 0.14 0.25 0.32 0.37 0.53 0.51 0.46 0.25 0.07 0.01 0.02 0.08 0.06 0.05 0.05 0.02 0.02 0.02 0.02 0.02 0.01 0.01 0.01
0.13 0.04 0.01 0.00 0.00 0.01 0.01 0.00 0.01 0.00 0.01 0.02 0.03 0.04 0.04 0.01 0.02 0.02 0.03 0.06 0.10 0.18 0.24 0.28 0.25 0.20 0.19 0.20 0.16 0.07 0.02 0.03 0.06 0.06 0.05 0.02 0.02 0.02 0.02 0.01 0.01 0.01 0.01
0.36 0.16 0.04 0.00 0.00 0.00 0.01 0.01 0.00 0.00 0.00 0.01 0.02 0.04 0.04 0.02 0.02 0.03 0.08 0.15 0.16 0.16 0.25 0.34 0.27 0.20 0.13 0.13 0.14 0.13 0.04 0.03 0.05 0.05 0.05 0.03 0.02 0.03 0.03 0.02 0.01 0.01 0.01
0.54 0.34 0.15 0.04 0.01 0.01 0.01 0.01 0.02 0.02 0.03 0.03 0.08 0.08 0.05 0.02 0.02 0.02 0.12 0.24 0.34 0.31 0.37 0.34 0.38 0.34 0.28 0.15 0.13 0.14 0.09 0.07 0.04 0.07 0.06 0.03 0.03 0.02 0.03 0.02 0.01 0.01 0.01
0.41 0.54 0.35 0.08 0.02 0.02 0.01 0.02 0.04 0.04 0.06 0.06 0.08 0.07 0.09 0.05 0.02 0.02 0.08 0.15 0.20 0.31 0.38 0.49 0.31 0.31 0.34 0.33 0.19 0.13 0.14 0.17 0.12 0.10 0.11 0.06 0.03 0.02 0.03 0.02 0.02 0.01 0.01
0.20 0.32 0.36 0.10 0.03 0.02 0.01 0.01 0.01 0.02 0.03 0.05 0.05 0.06 0.04 0.03 0.01 0.02 0.07 0.13 0.13 0.16 0.18 0.27 0.36 0.22 0.23 0.27 0.26 0.17 0.10 0.13 0.17 0.17 0.15 0.06 0.02 0.01 0.01 0.02 0.02 0.02 0.01
0.27 0.26 0.25 0.16 0.09 0.03 0.01 0.00 0.01 0.02 0.02 0.03 0.06 0.05 0.02 0.01 0.01 0.02 0.07 0.14 0.12 0.11 0.12 0.14 0.18 0.21 0.17 0.20 0.20 0.12 0.07 0.05 0.08 0.11 0.15 0.12 0.05 0.01 0.01 0.02 0.02 0.02 0.02
0.44 0.40 0.40 0.38 0.30 0.15 0.08 0.03 0.01 0.02 0.03 0.03 0.02 0.02 0.04 0.05 0.05 0.07 0.10 0.16 0.16 0.09 0.07 0.10 0.17 0.21 0.16 0.12 0.20 0.16 0.06 0.03 0.02 0.04 0.07 0.10 0.06 0.02 0.01 0.01 0.01 0.02 0.02
0.69 0.69 0.62 0.65 0.98 0.78 0.25 0.09 0.05 0.03 0.06 0.05 0.05 0.03 0.02 0.03 0.07 0.15 0.16 0.14 0.17 0.15 0.15 0.14 0.11 0.16 0.28 0.19 0.13 0.14 0.13 0.07 0.04 0.03 0.04 0.06 0.07 0.03 0.01 0.01 0.00 0.01 0.01
1.83 1.80 1.67 1.38 1.27 1.23 0.73 0.16 0.12 0.08 0.09 0.12 0.07 0.04 0.03 0.04 0.04 0.10 0.19 0.21 0.26 0.25 0.28 0.22 0.14 0.11 0.13 0.22 0.18 0.10 0.07 0.07 0.04 0.03 0.04 0.05 0.07 0.07 0.03 0.02 0.02 0.01 0.00
2.33 2.57 2.88 3.02 2.41 1.84 1.74 0.82 0.37 0.22 0.12 0.16 0.13 0.07 0.08 0.08 0.07 0.08 0.13 0.36 0.46 0.40 0.35 0.20 0.17 0.16 0.13 0.14 0.13 0.14 0.13 0.07 0.01 0.01 0.00 0.02 0.04 0.08 0.09 0.06 0.04 0.03 0.02
1.27 1.59 1.71 1.97 2.59 2.73 2.17 1.50 1.00 0.78 0.66 0.47 0.30 0.19 0.15 0.17 0.16 0.24 0.28 0.37 0.55 0.52 0.31 0.20 0.28 0.18 0.16 0.20 0.17 0.14 0.08 0.08 0.06 0.02 0.02 0.01 0.02 0.05 0.08 0.09 0.09 0.07 0.04
1.16 1.00 1.07 1.13 1.09 1.13 1.28 1.48 1.50 1.28 1.29 1.05 0.75 0.69 0.44 0.37 0.44 0.53 0.59 0.63 0.59 0.45 0.35 0.19 0.23 0.23 0.30 0.23 0.19 0.20 0.09 0.11 0.07 0.04 0.02 0.02 0.03 0.04 0.08 0.12 0.16 0.16 0.10
0.76 0.83 0.80 0.80 0.78 0.71 0.69 0.73 0.70 0.88 1.25 1.49 1.27 0.94 0.53 0.47 0.55 0.67 0.71 0.67 0.56 0.54 0.52 0.37 0.29 0.31 0.32 0.28 0.29 0.23 0.20 0.11 0.09 0.11 0.09 0.06 0.06 0.05 0.06 0.08 0.11 0.15 0.16
0.43 0.45 0.48 0.53 0.57 0.56 0.58 0.55 0.63 0.59 0.53 0.60 0.70 0.55 0.28 0.26 0.40 0.53 0.61 0.73 0.80 0.83 0.83 0.61 0.42 0.49 0.50 0.32 0.27 0.25 0.22 0.19 0.13 0.17 0.17 0.16 0.16 0.16 0.15 0.13 0.11 0.10 0.11
0.40 0.37 0.29 0.31 0.38 0.40 0.41 0.47 0.53 0.46 0.53 0.42 0.39 0.33 0.27 0.24 0.30 0.42 0.51 0.56 0.50 0.55 0.61 0.58 0.52 0.50 0.37 0.25 0.22 0.17 0.18 0.20 0.22 0.29 0.29 0.29 0.28 0.25 0.23 0.24 0.23 0.20 0.16
0.32 0.38 0.33 0.31 0.34 0.33 0.34 0.38 0.34 0.25 0.24 0.28 0.29 0.27 0.26 0.26 0.24 0.25 0.26 0.30 0.36 0.56 0.67 0.71 0.65 0.54 0.43 0.45 0.60 0.51 0.39 0.30 0.33 0.28 0.25 0.21 0.24 0.25 0.28 0.29 0.29 0.31 0.31
0.29 0.29 0.30 0.30 0.32 0.32 0.32 0.23 0.17 0.16 0.17 0.19 0.25 0.30 0.34 0.42 0.44 0.33 0.32 0.32 0.41 0.54 0.69 0.76 0.86 0.84 0.69 0.61 0.60 0.52 0.53 0.48 0.64 0.43 0.28 0.27 0.25 0.24 0.21 0.24 0.26 0.26 0.25
0.22 0.35 0.47 0.58 0.53 0.40 0.46 0.29 0.29 0.26 0.24 0.23 0.23 0.25 0.30 0.39 0.29 0.33 0.40 0.40 0.36 0.37 0.45 0.56 0.59 0.60 0.45 0.46 0.56 0.72 0.70 0.89 0.78 0.28 0.22 0.27 0.26 0.28 0.28 0.27 0.33 0.26 0.25
0.27 0.27 0.30 0.42 0.69 0.84 0.89 0.80 0.67 0.49 0.47 0.53 0.56 0.54 0.43 0.43 0.43 0.25 0.38 0.44 0.49 0.58 0.50 0.41 0.41 0.42 0.39 0.39 0.49 0.60 0.65 0.63 0.40 0.22 0.38 0.52 0.46 0.41 0.34 0.37 0.49 0.37 0.36
0.33 0.40 0.45 0.35 0.24 0.29 0.43 0.55 0.74 0.88 0.97 0.87 0.79 0.74 0.76 0.76 0.71 0.62 0.47 0.44 0.40 0.42 0.46 0.45 0.42 0.39 0.39 0.38 0.43 0.40 0.39 0.51 0.52 0.38 0.37 0.46 0.38 0.43 0.42 0.40 0.56 0.35 0.35
0.41 0.56 0.58 0.59 0.48 0.32 0.31 0.33 0.39 0.33 0.37 0.40 0.37 0.36 0.38 0.38 0.51 0.47 0.36 0.38 0.36 0.39 0.47 0.51 0.52 0.58 0.51 0.42 0.34 0.28 0.30 0.35 0.34 0.28 0.28 0.30 0.31 0.32 0.33 0.32 0.35 0.40 0.28
0.47 0.52 0.64 0.64 0.65 0.59 0.66 0.67 0.67 0.65 0.64 0.56 0.43 0.34 0.39 0.37 0.48 0.36 0.26 0.26 0.30 0.31 0.31 0.34 0.37 0.39 0.40 0.44 0.61 0.56 0.52 0.41 0.33 0.27 0.27 0.32 0.29 0.32 0.40 0.36 0.28 0.24 0.18

GFSMA_prec_precacc24_141.txt.gz
Total_Precipitation_Accumulation
0.03 0.03 0.02 0.02 0.01 0.02 0.01 0.01 0.01 0.01 0.00 0.00 0.00 0.00 0.02 0.05 0.04 0.05 0.09 0.25 0.28 0.39 0.77 0.80 0.73 0.76 0.48 0.25 0.16 0.13 0.13 0.11 0.14 0.09 0.02 0.02 0.02 0.02 0.02 0.02 0.02 0.03 0.04
0.04 0.02 0.02 0.02 0.01 0.02 0.02 0.02 0.01 0.02 0.01 0.01 0.01 0.00 0.02 0.01 0.00 0.03 0.04 0.16 0.20 0.26 0.53 0.90 0.99 0.91 0.46 0.15 0.04 0.03 0.04 0.05 0.05 0.07 0.03 0.02 0.02 0.01 0.01 0.02 0.02 0.02 0.02
0.08 0.04 0.02 0.02 0.01 0.01 0.02 0.02 0.03 0.02 0.02 0.02 0.02 0.01 0.00 0.01 0.00 0.00 0.02 0.04 0.08 0.15 0.28 0.56 0.72 0.64 0.44 0.15 0.04 0.02 0.03 0.04 0.03 0.04 0.04 0.02 0.01 0.02 0.01 0.02 0.01 0.01 0.02
0.11 0.09 0.04 0.02 0.02 0.02 0.01 0.01 0.01 0.01 0.01 0.03 0.03 0.03 0.02 0.00 0.00 0.00 0.01 0.02 0.05 0.15 0.21 0.31 0.51 0.52 0.47 0.28 0.11 0.02 0.01 0.08 0.06 0.06 0.07 0.02 0.01 0.01 0.01 0.02 0.01 0.01 0.01
0.31 0.24 0.13 0.08 0.06 0.01 0.01 0.00 0.01 0.00 0.01 0.02 0.03 0.04 0.03 0.01 0.02 0.01 0.01 0.01 0.01 0.07 0.20 0.26 0.24 0.20 0.19 0.19 0.19 0.11 0.03 0.03 0.06 0.06 0.07 0.03 0.01 0.02 0.02 0.01 0.01 0.01 0.01
0.54 0.53 0.41 0.21 0.11 0.03 0.02 0.01 0.00 0.00 0.00 0.01 0.01 0.03 0.03 0.02 0.02 0.02 0.02 0.02 0.03 0.11 0.24 0.33 0.27 0.20 0.12 0.12 0.14 0.14 0.09 0.07 0.07 0.06 0.06 0.03 0.02 0.02 0.02 0.01 0.01 0.01 0.01
0.64 0.85 0.84 0.67 0.33 0.13 0.05 0.03 0.04 0.03 0.02 0.02 0.05 0.05 0.04 0.02 0.01 0.01 0.01 0.01 0.06 0.26 0.36 0.34 0.38 0.34 0.27 0.14 0.13 0.15 0.09 0.09 0.07 0.10 0.06 0.05 0.04 0.02 0.02 0.02 0.01 0.01 0.01
0.43 0.67 0.85 0.94 1.06 0.46 0.18 0.10 0.05 0.04 0.05 0.05 0.05 0.03 0.04 0.02 0.01 0.01 0.01 0.01 0.04 0.25 0.37 0.49 0.31 0.31 0.34 0.31 0.17 0.12 0.14 0.19 0.14 0.11 0.15 0.12 0.10 0.01 0.02 0.02 0.02 0.01 0.01
0.20 0.36 0.67 0.71 0.64 0.66 0.47 0.18 0.09 0.05 0.03 0.04 0.04 0.04 0.02 0.02 0.01 0.01 0.00 0.01 0.02 0.09 0.16 0.27 0.36 0.22 0.22 0.26 0.26 0.17 0.10 0.12 0.17 0.19 0.18 0.08 0.04 0.01 0.01 0.02 0.02 0.02 0.01
0.28 0.28 0.34 0.38 0.67 0.81 0.40 0.22 0.17 0.12 0.08 0.03 0.06 0.03 0.01 0.00 0.00 0.01 0.01 0.01 0.02 0.07 0.11 0.14 0.18 0.20 0.16 0.20 0.20 0.12 0.07 0.05 0.08 0.11 0.16 0.15 0.07 0.04 0.02 0.02 0.02 0.02 0.02
0.44 0.41 0.42 0.44 0.51 0.56 0.46 0.38 0.24 0.13 0.08 0.06 0.02 0.03 0.03 0.03 0.02 0.02 0.02 0.03 0.05 0.04 0.06 0.10 0.17 0.20 0.16 0.12 0.20 0.16 0.06 0.03 0.02 0.04 0.07 0.10 0.07 0.03 0.03 0.01 0.02 0.02 0.02
0.67 0.69 0.63 0.67 1.08 1.19 0.85 0.50 0.61 0.38 0.19 0.14 0.10 0.06 0.03 0.02 0.02 0.03 0.05 0.08 0.10 0.10 0.11 0.12 0.10 0.16 0.28 0.19 0.13 0.14 0.13 0.07 0.04 0.03 0.04 0.06 0.07 0.04 0.02 0.02 0.01 0.01 0.01
1.83 1.81 1.66 1.39 1.31 1.42 1.72 0.94 0.64 0.74 0.49 0.32 0.21 0.17 0.13 0.08 0.05 0.03 0.05 0.10 0.16 0.13 0.15 0.16 0.12 0.11 0.13 0.22 0.18 0.12 0.08 0.08 0.07 0.07 0.07 0.06 0.07 0.07 0.03 0.03 0.04 0.03 0.02
2.35 2.59 2.88 3.02 2.45 1.94 2.10 1.99 1.22 0.97 0.94 0.57 0.39 0.33 0.26 0.24 0.20 0.16 0.12 0.23 0.30 0.25 0.19 0.12 0.13 0.16 0.14 0.15 0.15 0.17 0.17 0.13 0.10 0.05 0.06 0.07 0.06 0.08 0.09 0.07 0.07 0.07 0.05
1.31 1.64 1.73 1.99 2.62 2.79 2.31 2.09 1.80 1.37 1.28 1.16 0.76 0.45 0.38 0.38 0.30 0.30 0.31 0.33 0.43 0.36 0.22 0.15 0.23 0.19 0.19 0.24 0.20 0.19 0.12 0.11 0.11 0.08 0.07 0.06 0.05 0.06 0.08 0.09 0.10 0.09 0.07
1.19 1.03 1.08 1.14 1.10 1.22 1.41 1.73 1.90 1.72 1.61 1.48 1.20 1.09 0.83 0.74 0.71 0.66 0.67 0.69 0.61 0.44 0.32 0.18 0.26 0.29 0.35 0.26 0.22 0.24 0.11 0.13 0.08 0.08 0.06 0.07 0.07 0.06 0.09 0.12 0.16 0.17 0.13
0.82 0.88 0.83 0.82 0.80 0.73 0.79 0.93 0.90 1.12 1.49 1.65 1.47 1.32 1.31 1.42 1.19 1.20 1.26 1.09 0.76 0.65 0.62 0.41 0.32 0.34 0.33 0.30 0.31 0.26 0.23 0.15 0.12 0.16 0.14 0.11 0.10 0.08 0.07 0.08 0.11 0.16 0.17
0.46 0.47 0.49 0.54 0.60 0.63 0.70 0.75 0.83 0.78 0.76 0.83 0.95 0.99 0.99 0.96 1.01 1.15 1.20 1.29 0.99 0.85 0.86 0.65 0.49 0.54 0.55 0.43 0.40 0.39 0.33 0.29 0.18 0.17 0.21 0.22 0.19 0.17 0.17 0.14 0.11 0.11 0.13
0.35 0.39 0.28 0.32 0.39 0.43 0.50 0.58 0.66 0.68 0.75 0.82 0.91 0.87 0.77 0.68 0.65 0.66 0.68 0.66 0.49 0.49 0.55 0.54 0.49 0.48 0.39 0.28 0.21 0.14 0.15 0.19 0.22 0.28 0.29 0.32 0.31 0.26 0.25 0.24 0.23 0.20 0.16
0.29 0.44 0.31 0.28 0.27 0.32 0.36 0.47 0.49 0.43 0.44 0.53 0.54 0.56 0.51 0.43 0.35 0.36 0.31 0.28 0.24 0.32 0.44 0.55 0.52 0.43 0.34 0.34 0.46 0.45 0.35 0.25 0.29 0.27 0.26 0.23 0.26 0.27 0.29 0.29 0.29 0.31 0.31
0.20 0.33 0.24 0.26 0.30 0.31 0.31 0.23 0.20 0.25 0.29 0.29 0.32 0.36 0.38 0.41 0.37 0.28 0.27 0.27 0.34 0.45 0.56 0.63 0.73 0.70 0.60 0.52 0.52 0.50 0.51 0.46 0.55 0.38 0.31 0.30 0.27 0.25 0.22 0.24 0.26 0.25 0.25
0.07 0.17 0.34 0.49 0.50 0.38 0.45 0.29 0.28 0.25 0.23 0.22 0.22 0.24 0.29 0.38 0.27 0.29 0.36 0.37 0.32 0.34 0.42 0.51 0.55 0.57 0.44 0.45 0.55 0.71 0.71 0.88 0.75 0.31 0.36 0.37 0.33 0.32 0.28 0.27 0.33 0.26 0.24
0.02 0.04 0.13 0.33 0.68 0.83 0.88 0.79 0.67 0.48 0.45 0.51 0.54 0.51 0.42 0.41 0.41 0.24 0.33 0.40 0.47 0.57 0.49 0.40 0.40 0.42 0.40 0.39 0.48 0.60 0.66 0.66 0.42 0.22 0.43 0.61 0.48 0.43 0.34 0.35 0.46 0.35 0.35
0.05 0.10 0.18 0.25 0.21 0.28 0.42 0.54 0.72 0.87 0.97 0.85 0.78 0.72 0.74 0.74 0.69 0.61 0.47 0.43 0.40 0.42 0.45 0.45 0.42 0.39 0.39 0.38 0.44 0.40 0.39 0.52 0.53 0.38 0.41 0.57 0.39 0.41 0.39 0.35 0.48 0.32 0.33
0.07 0.21 0.36 0.42 0.42 0.30 0.28 0.30 0.34 0.30 0.36 0.39 0.37 0.35 0.37 0.37 0.49 0.46 0.36 0.38 0.36 0.39 0.47 0.51 0.51 0.56 0.50 0.41 0.34 0.28 0.29 0.33 0.30 0.23 0.21 0.24 0.24 0.26 0.26 0.26 0.29 0.34 0.27
0.04 0.06 0.14 0.29 0.46 0.51 0.58 0.58 0.58 0.58 0.58 0.51 0.39 0.32 0.36 0.35 0.45 0.34 0.25 0.26 0.29 0.30 0.31 0.34 0.37 0.39 0.39 0.43 0.58 0.54 0.51 0.38 0.30 0.20 0.17 0.20 0.19 0.24 0.31 0.29 0.24 0.23 0.19

GFSMA_prec_precacc24_147.txt.gz
Total_Precipitation_Accumulation
0.10 0.12 0.08 0.08 0.05 0.07 0.04 0.03 0.01 0.01 0.00 0.00 0.00 0.00 0.02 0.05 0.04 0.05 0.09 0.09 0.03 0.14 0.31 0.33 0.46 0.69 0.48 0.25 0.17 0.17 0.16 0.19 0.24 0.23 0.16 0.10 0.06 0.03 0.01 0.01 0.02 0.03 0.06
0.15 0.18 0.14 0.12 0.10 0.08 0.08 0.06 0.03 0.02 0.01 0.00 0.01 0.00 0.02 0.01 0.00 0.03 0.03 0.09 0.03 0.01 0.17 0.40 0.52 0.73 0.45 0.15 0.05 0.05 0.08 0.08 0.09 0.14 0.10 0.07 0.06 0.02 0.01 0.01 0.01 0.02 0.04
0.18 0.22 0.22 0.17 0.11 0.09 0.11 0.07 0.06 0.04 0.03 0.02 0.02 0.01 0.00 0.01 0.00 0.00 0.02 0.04 0.06 0.02 0.02 0.10 0.36 0.49 0.44 0.20 0.07 0.02 0.04 0.04 0.03 0.05 0.05 0.03 0.01 0.01 0.00 0.01 0.01 0.01 0.02
0.16 0.21 0.28 0.24 0.25 0.21 0.15 0.08 0.04 0.03 0.02 0.03 0.03 0.03 0.02 0.00 0.00 0.00 0.01 0.02 0.04 0.11 0.07 0.04 0.13 0.19 0.27 0.32 0.17 0.04 0.02 0.07 0.05 0.06 0.06 0.01 0.01 0.00 0.00 0.01 0.01 0.01 0.01
0.32 0.30 0.23 0.27 0.33 0.30 0.23 0.16 0.06 0.01 0.01 0.02 0.03 0.04 0.03 0.01 0.02 0.02 0.01 0.01 0.01 0.03 0.10 0.08 0.02 0.03 0.10 0.15 0.21 0.15 0.05 0.04 0.05 0.05 0.06 0.02 0.01 0.00 0.01 0.01 0.01 0.01 0.01
0.54 0.54 0.45 0.33 0.34 0.31 0.25 0.23 0.19 0.12 0.03 0.01 0.01 0.02 0.02 0.02 0.02 0.03 0.02 0.02 0.01 0.01 0.05 0.18 0.10 0.03 0.04 0.09 0.10 0.14 0.10 0.10 0.09 0.05 0.07 0.03 0.01 0.01 0.01 0.01 0.01 0.01 0.01
0.64 0.85 0.86 0.72 0.45 0.34 0.25 0.26 0.28 0.26 0.19 0.10 0.12 0.05 0.03 0.02 0.01 0.01 0.02 0.02 0.02 0.01 0.02 0.07 0.14 0.13 0.06 0.09 0.09 0.11 0.09 0.12 0.13 0.13 0.09 0.06 0.02 0.00 0.00 0.01 0.01 0.01 0.01
0.43 0.67 0.86 0.97 1.17 0.86 0.57 0.41 0.41 0.41 0.63 0.74 0.42 0.10 0.05 0.03 0.01 0.00 0.00 0.01 0.00 0.01 0.01 0.01 0.04 0.10 0.14 0.24 0.15 0.08 0.08 0.18 0.19 0.18 0.24 0.17 0.13 0.00 0.01 0.01 0.01 0.01 0.01
0.21 0.36 0.67 0.72 0.66 0.82 0.94 0.99 1.06 1.05 0.92 0.90 0.85 0.53 0.13 0.04 0.00 0.00 0.00 0.00 0.01 0.01 0.00 0.00 0.01 0.02 0.11 0.19 0.23 0.15 0.07 0.09 0.16 0.20 0.22 0.10 0.07 0.02 0.00 0.00 0.01 0.01 0.01
0.25 0.27 0.34 0.38 0.67 0.84 0.56 0.70 0.56 0.75 0.97 1.11 1.33 0.95 0.45 0.07 0.01 0.00 0.01 0.00 0.00 0.00 0.00 0.01 0.02 0.03 0.05 0.15 0.19 0.12 0.07 0.04 0.05 0.09 0.16 0.16 0.09 0.05 0.02 0.01 0.01 0.01 0.01
0.28 0.33 0.38 0.41 0.50 0.55 0.56 0.55 0.36 0.25 0.29 0.37 0.39 0.69 0.89 0.39 0.08 0.01 0.01 0.02 0.02 0.00 0.00 0.01 0.00 0.02 0.05 0.09 0.18 0.15 0.06 0.03 0.01 0.03 0.06 0.10 0.09 0.07 0.05 0.02 0.01 0.01 0.01
0.51 0.55 0.47 0.52 0.93 1.09 0.83 0.58 0.81 0.70 0.51 0.36 0.38 0.49 0.37 0.24 0.11 0.05 0.01 0.01 0.02 0.01 0.01 0.01 0.02 0.02 0.07 0.13 0.12 0.14 0.13 0.07 0.06 0.09 0.09 0.08 0.07 0.06 0.06 0.04 0.03 0.02 0.02
1.70 1.75 1.58 1.31 1.28 1.41 1.72 1.02 0.83 1.13 1.38 0.99 0.72 0.49 0.46 0.39 0.24 0.18 0.13 0.04 0.03 0.02 0.06 0.05 0.03 0.03 0.03 0.15 0.17 0.12 0.08 0.11 0.16 0.25 0.20 0.13 0.12 0.09 0.05 0.09 0.09 0.06 0.04
2.26 2.51 2.82 2.98 2.44 1.93 2.09 1.97 1.32 1.20 1.62 1.83 1.51 1.16 0.79 0.76 0.72 0.58 0.40 0.41 0.28 0.17 0.10 0.02 0.03 0.06 0.06 0.11 0.15 0.22 0.21 0.16 0.14 0.12 0.14 0.16 0.15 0.13 0.12 0.11 0.14 0.16 0.11
1.22 1.54 1.72 2.01 2.65 2.78 2.28 2.07 1.82 1.51 1.51 1.68 1.71 1.83 1.79 1.15 0.80 0.79 0.81 0.67 0.52 0.25 0.09 0.05 0.09 0.05 0.08 0.18 0.20 0.21 0.12 0.13 0.15 0.15 0.14 0.10 0.09 0.14 0.16 0.15 0.14 0.12 0.12
1.09 0.95 1.12 1.22 1.17 1.29 1.42 1.79 1.94 1.75 1.66 1.60 1.48 1.55 1.82 1.99 1.64 1.36 1.23 1.23 0.88 0.54 0.29 0.16 0.20 0.17 0.23 0.17 0.21 0.25 0.13 0.14 0.10 0.10 0.08 0.07 0.09 0.10 0.13 0.17 0.20 0.20 0.16
0.81 0.86 0.80 0.83 0.94 0.82 0.91 1.01 0.99 1.21 1.52 1.69 1.59 1.59 1.85 2.19 2.06 1.97 1.88 1.63 1.32 1.13 1.08 0.70 0.47 0.47 0.38 0.28 0.28 0.26 0.24 0.15 0.13 0.18 0.16 0.12 0.11 0.10 0.10 0.12 0.14 0.18 0.20
0.70 0.56 0.57 0.67 0.76 0.82 0.88 0.91 1.00 0.98 0.91 1.00 1.11 1.14 1.19 1.31 1.49 1.65 1.79 1.98 1.96 1.69 1.44 1.21 0.99 0.94 0.96 0.71 0.55 0.44 0.34 0.29 0.20 0.18 0.19 0.19 0.18 0.19 0.20 0.17 0.14 0.13 0.15
0.95 1.04 0.84 0.75 0.72 0.71 0.72 0.73 0.73 0.79 0.87 1.03 1.08 1.13 1.12 1.02 1.07 1.14 1.16 1.12 1.03 1.04 1.13 1.04 0.99 0.94 0.74 0.55 0.42 0.33 0.32 0.28 0.22 0.23 0.25 0.25 0.24 0.24 0.26 0.27 0.27 0.24 0.21
0.89 1.34 1.48 1.49 1.24 0.96 0.96 0.81 0.67 0.77 0.70 0.84 0.80 0.73 0.82 0.90 0.80 0.76 0.77 0.74 0.65 0.65 0.68 0.71 0.62 0.54 0.49 0.49 0.58 0.57 0.45 0.33 0.28 0.19 0.20 0.18 0.22 0.25 0.28 0.29 0.30 0.34 0.35
0.37 0.95 1.03 1.10 0.92 0.69 0.62 0.31 0.29 0.46 0.64 0.46 0.40 0.42 0.45 0.50 0.46 0.35 0.31 0.32 0.44 0.57 0.63 0.63 0.62 0.57 0.52 0.47 0.47 0.47 0.42 0.31 0.24 0.15 0.15 0.15 0.18 0.19 0.18 0.22 0.27 0.29 0.30
0.03 0.10 0.10 0.18 0.38 0.32 0.34 0.20 0.23 0.27 0.25 0.20 0.19 0.22 0.29 0.37 0.28 0.28 0.29 0.28 0.26 0.26 0.31 0.40 0.42 0.39 0.30 0.27 0.31 0.41 0.43 0.48 0.41 0.15 0.23 0.20 0.20 0.20 0.20 0.21 0.29 0.26 0.29
0.00 0.00 0.02 0.06 0.09 0.15 0.20 0.18 0.18 0.16 0.21 0.31 0.46 0.48 0.40 0.40 0.39 0.24 0.31 0.34 0.38 0.47 0.43 0.36 0.36 0.36 0.34 0.33 0.37 0.39 0.42 0.38 0.24 0.12 0.30 0.39 0.29 0.27 0.23 0.25 0.37 0.32 0.35
0.00 0.00 0.00 0.00 0.00 0.00 0.01 0.04 0.15 0.25 0.28 0.30 0.52 0.65 0.72 0.72 0.65 0.58 0.45 0.41 0.37 0.38 0.41 0.41 0.42 0.39 0.38 0.37 0.40 0.35 0.31 0.37 0.39 0.26 0.32 0.47 0.28 0.28 0.27 0.27 0.39 0.30 0.34
0.00 0.01 0.00 0.00 0.00 0.00 0.00 0.00 0.02 0.04 0.09 0.16 0.23 0.27 0.30 0.32 0.40 0.37 0.33 0.36 0.33 0.36 0.41 0.44 0.46 0.52 0.47 0.39 0.32 0.28 0.29 0.31 0.27 0.20 0.19 0.22 0.22 0.24 0.21 0.20 0.20 0.26 0.27
0.01 0.01 0.01 0.01 0.01 0.00 0.00 0.00 0.01 0.05 0.11 0.13 0.16 0.19 0.23 0.23 0.27 0.22 0.20 0.25 0.28 0.29 0.31 0.32 0.35 0.36 0.36 0.39 0.52 0.52 0.51 0.38 0.28 0.17 0.14 0.18 0.14 0.17 0.22 0.18 0.13 0.11 0.10

GFSMA_prec_precacc24_150.txt.gz
Total_Precipitation_Accumulation
0.10 0.12 0.07 0.08 0.06 0.09 0.06 0.06 0.03 0.03 0.03 0.02 0.01 0.00 0.02 0.05 0.04 0.05 0.07 0.02 0.03 0.11 0.22 0.10 0.17 0.20 0.20 0.19 0.15 0.16 0.16 0.19 0.26 0.29 0.23 0.14 0.11 0.10 0.04 0.02 0.02 0.03 0.06
0.15 0.18 0.14 0.12 0.09 0.11 0.14 0.10 0.05 0.04 0.02 0.04 0.02 0.01 0.02 0.01 0.00 0.03 0.03 0.03 0.02 0.01 0.14 0.29 0.27 0.23 0.16 0.11 0.04 0.05 0.08 0.08 0.10 0.16 0.14 0.11 0.09 0.05 0.03 0.01 0.01 0.02 0.05
0.18 0.22 0.22 0.16 0.11 0.09 0.13 0.14 0.12 0.07 0.03 0.03 0.04 0.03 0.01 0.01 0.00 0.00 0.02 0.03 0.03 0.00 0.01 0.04 0.17 0.36 0.38 0.17 0.08 0.02 0.03 0.03 0.03 0.05 0.06 0.03 0.02 0.01 0.00 0.00 0.00 0.01 0.02
0.16 0.21 0.28 0.24 0.25 0.21 0.16 0.10 0.08 0.08 0.03 0.02 0.03 0.06 0.03 0.00 0.00 0.00 0.01 0.02 0.02 0.03 0.01 0.01 0.02 0.07 0.14 0.22 0.14 0.03 0.02 0.07 0.05 0.06 0.05 0.01 0.00 0.00 0.00 0.00 0.00 0.01 0.01
0.32 0.30 0.23 0.27 0.33 0.30 0.23 0.16 0.09 0.06 0.05 0.03 0.02 0.04 0.06 0.01 0.02 0.01 0.01 0.01 0.01 0.03 0.04 0.03 0.00 0.01 0.02 0.07 0.16 0.15 0.05 0.04 0.05 0.05 0.06 0.02 0.00 0.00 0.00 0.00 0.00 0.01 0.01
0.54 0.53 0.45 0.33 0.34 0.31 0.25 0.23 0.19 0.16 0.13 0.07 0.03 0.02 0.05 0.06 0.02 0.02 0.02 0.01 0.00 0.00 0.03 0.12 0.04 0.01 0.00 0.01 0.05 0.14 0.11 0.11 0.10 0.05 0.07 0.03 0.00 0.00 0.00 0.00 0.00 0.01 0.01
0.64 0.85 0.86 0.72 0.45 0.34 0.25 0.26 0.28 0.26 0.30 0.37 0.37 0.21 0.09 0.09 0.07 0.03 0.03 0.02 0.01 0.00 0.02 0.07 0.10 0.06 0.02 0.01 0.01 0.05 0.09 0.13 0.15 0.14 0.09 0.05 0.02 0.00 0.00 0.00 0.00 0.01 0.01
0.43 0.67 0.86 0.97 1.17 0.86 0.57 0.41 0.41 0.41 0.63 0.88 0.88 0.55 0.32 0.29 0.13 0.04 0.03 0.02 0.01 0.01 0.02 0.02 0.04 0.08 0.07 0.02 0.00 0.00 0.04 0.15 0.21 0.21 0.27 0.19 0.12 0.00 0.00 0.00 0.00 0.01 0.01
0.21 0.36 0.68 0.72 0.67 0.82 0.95 0.99 1.06 1.05 0.92 0.91 0.96 1.11 1.00 0.68 0.47 0.21 0.04 0.02 0.02 0.02 0.02 0.02 0.01 0.02 0.07 0.07 0.03 0.04 0.05 0.06 0.15 0.22 0.24 0.10 0.07 0.02 0.00 0.00 0.00 0.00 0.01
0.25 0.27 0.35 0.39 0.68 0.85 0.57 0.70 0.56 0.76 0.97 1.11 1.34 0.96 0.61 0.47 0.38 0.33 0.18 0.04 0.03 0.02 0.01 0.01 0.02 0.03 0.03 0.07 0.06 0.04 0.05 0.04 0.05 0.09 0.17 0.17 0.09 0.05 0.02 0.00 0.00 0.00 0.01
0.27 0.33 0.38 0.41 0.49 0.55 0.54 0.55 0.36 0.26 0.28 0.37 0.39 0.71 1.08 0.89 0.48 0.22 0.15 0.08 0.06 0.02 0.02 0.02 0.01 0.02 0.04 0.03 0.04 0.03 0.03 0.03 0.01 0.02 0.05 0.10 0.11 0.07 0.05 0.02 0.01 0.01 0.01
0.49 0.54 0.45 0.50 0.88 0.99 0.77 0.56 0.80 0.71 0.52 0.37 0.39 0.51 0.40 0.36 0.46 0.52 0.37 0.19 0.07 0.03 0.02 0.02 0.02 0.01 0.02 0.04 0.05 0.03 0.09 0.07 0.06 0.09 0.08 0.07 0.06 0.05 0.05 0.04 0.03 0.02 0.01
1.70 1.74 1.54 1.24 1.24 1.38 1.71 1.02 0.84 1.13 1.39 1.00 0.74 0.52 0.49 0.41 0.26 0.21 0.22 0.20 0.14 0.09 0.09 0.06 0.03 0.04 0.02 0.05 0.05 0.05 0.07 0.11 0.17 0.25 0.21 0.13 0.12 0.09 0.06 0.09 0.10 0.07 0.04
2.24 2.48 2.79 2.87 2.30 1.85 2.09 1.98 1.33 1.20 1.62 1.85 1.53 1.19 0.85 0.82 0.78 0.63 0.44 0.44 0.33 0.24 0.18 0.07 0.03 0.04 0.04 0.04 0.06 0.19 0.22 0.18 0.17 0.15 0.19 0.19 0.17 0.15 0.17 0.16 0.20 0.24 0.19
1.20 1.51 1.68 1.94 2.50 2.68 2.25 2.06 1.82 1.50 1.52 1.69 1.75 1.91 1.89 1.23 0.87 0.84 0.87 0.76 0.60 0.33 0.19 0.13 0.15 0.05 0.07 0.15 0.10 0.14 0.10 0.14 0.18 0.20 0.19 0.16 0.13 0.16 0.20 0.21 0.22 0.19 0.18
1.07 0.93 1.10 1.15 1.11 1.22 1.39 1.78 1.98 1.78 1.70 1.58 1.47 1.59 1.94 2.07 1.68 1.44 1.34 1.33 1.14 0.73 0.44 0.34 0.38 0.26 0.30 0.19 0.13 0.16 0.10 0.15 0.13 0.13 0.10 0.09 0.10 0.10 0.14 0.19 0.22 0.22 0.17
0.81 0.84 0.77 0.79 0.94 0.82 0.94 1.09 1.17 1.31 1.60 1.69 1.56 1.58 1.87 2.25 2.10 2.01 1.92 1.74 1.49 1.45 1.36 1.03 0.74 0.59 0.42 0.24 0.20 0.18 0.17 0.14 0.15 0.20 0.17 0.13 0.11 0.11 0.11 0.13 0.15 0.19 0.20
0.74 0.60 0.55 0.62 0.71 0.81 0.97 1.05 1.12 1.10 0.98 1.00 1.09 1.14 1.20 1.31 1.49 1.65 1.79 2.00 2.02 1.84 1.69 1.55 1.49 1.32 1.06 0.68 0.48 0.34 0.25 0.23 0.17 0.18 0.19 0.20 0.18 0.19 0.20 0.17 0.14 0.14 0.15
0.97 1.04 0.85 0.76 0.74 0.85 0.92 1.17 0.97 0.81 0.87 1.03 1.08 1.15 1.19 1.08 1.13 1.19 1.20 1.17 1.08 1.10 1.25 1.28 1.34 1.38 1.08 0.62 0.38 0.30 0.29 0.25 0.20 0.22 0.23 0.24 0.23 0.24 0.27 0.28 0.27 0.24 0.21
0.90 1.34 1.50 1.55 1.33 1.03 1.09 1.06 0.98 1.01 0.90 1.08 1.00 0.85 1.01 1.09 0.97 0.92 0.96 0.97 0.87 0.86 0.92 1.01 1.04 0.97 0.92 0.82 0.73 0.61 0.44 0.31 0.31 0.31 0.29 0.22 0.25 0.27 0.29 0.30 0.30 0.33 0.33
0.36 0.95 1.04 1.14 1.01 0.78 0.77 0.54 0.44 0.81 0.88 0.77 0.96 0.75 0.70 0.69 0.62 0.47 0.40 0.42 0.56 0.73 0.84 0.87 0.89 0.84 0.78 0.72 0.71 0.70 0.57 0.38 0.25 0.19 0.19 0.22 0.25 0.26 0.23 0.24 0.27 0.28 0.28
0.02 0.09 0.08 0.17 0.42 0.37 0.36 0.23 0.25 0.39 0.45 0.34 0.30 0.30 0.32 0.37 0.28 0.28 0.31 0.30 0.28 0.28 0.33 0.44 0.49 0.47 0.36 0.32 0.31 0.37 0.40 0.47 0.45 0.17 0.21 0.18 0.16 0.15 0.13 0.15 0.20 0.20 0.23
0.00 0.00 0.00 0.00 0.02 0.06 0.06 0.07 0.05 0.07 0.13 0.20 0.23 0.22 0.20 0.24 0.27 0.17 0.29 0.33 0.38 0.47 0.43 0.37 0.37 0.39 0.36 0.35 0.36 0.29 0.25 0.23 0.14 0.08 0.19 0.24 0.16 0.14 0.11 0.13 0.22 0.18 0.19
0.00 0.00 0.00 0.00 0.00 0.00 0.00 0.01 0.04 0.04 0.05 0.08 0.08 0.08 0.09 0.12 0.16 0.18 0.35 0.40 0.36 0.37 0.39 0.40 0.42 0.39 0.38 0.37 0.40 0.34 0.27 0.26 0.26 0.15 0.16 0.28 0.14 0.15 0.14 0.15 0.26 0.20 0.24
0.00 0.00 0.00 0.00 0.00 0.00 0.00 0.00 0.00 0.00 0.00 0.03 0.04 0.06 0.09 0.10 0.16 0.17 0.23 0.33 0.33 0.35 0.38 0.42 0.44 0.47 0.43 0.37 0.32 0.28 0.28 0.28 0.22 0.16 0.15 0.14 0.13 0.15 0.16 0.15 0.15 0.20 0.22
0.00 0.00 0.01 0.01 0.00 0.00 0.00 0.00 0.00 0.00 0.00 0.00 0.01 0.03 0.06 0.08 0.14 0.16 0.16 0.22 0.25 0.29 0.31 0.31 0.33 0.35 0.34 0.38 0.50 0.50 0.51 0.37 0.27 0.16 0.14 0.17 0.12 0.15 0.20 0.16 0.12 0.10 0.09